Wetterdaten: Freitag, 05.08.2022
Datum Zeit Temp. Aussen Temp. o. S. Temp +5cm Feuchte Auss Luftdruck Regen Sonnenschein Regendauer Solar Windben Empfang
05.08.2022 00:00 22,8 C 21,7 C 17,8 C 74 % 1016,1 hPa 0,0 l/m 0 min 0 min 0 W/m 19,3 km/h (3 Bft) 100,00 %
05.08.2022 00:02 22,8 C 21,7 C 17,8 C 75 % 1016,2 hPa 0,0 l/m 0 min 0 min 0 W/m 12,9 km/h (3 Bft) 94,87 %
05.08.2022 00:04 22,7 C 21,1 C 17,8 C 75 % 1016,2 hPa 0,0 l/m 0 min 2 min 0 W/m 19,3 km/h (3 Bft) 97,87 %
05.08.2022 00:08 22,5 C 21,1 C 17,8 C 76 % 1016,1 hPa 0,0 l/m 0 min 4 min 0 W/m 12,9 km/h (3 Bft) 96,77 %
05.08.2022 00:10 22,4 C 21,1 C 17,2 C 77 % 1015,9 hPa 0,0 l/m 0 min 0 min 0 W/m 6,4 km/h (2 Bft) 97,87 %
05.08.2022 00:12 22,3 C 21,1 C 17,2 C 78 % 1015,8 hPa 0,0 l/m 0 min 0 min 0 W/m 12,9 km/h (3 Bft) 100,00 %
05.08.2022 00:14 22,2 C 20,6 C 17,2 C 78 % 1015,8 hPa 0,0 l/m 0 min 2 min 0 W/m 6,4 km/h (2 Bft) 97,87 %
05.08.2022 00:16 22,1 C 20,6 C 16,7 C 78 % 1015,5 hPa 0,0 l/m 0 min 2 min 0 W/m 12,9 km/h (3 Bft) 100,00 %
05.08.2022 00:18 22,1 C 20,6 C 16,1 C 79 % 1015,2 hPa 0,0 l/m 0 min 2 min 0 W/m 3,2 km/h (1 Bft) 100,00 %
05.08.2022 00:20 21,9 C 20,6 C 16,1 C 80 % 1015,0 hPa 0,0 l/m 0 min 2 min 0 W/m 22,5 km/h (4 Bft) 100,00 %
05.08.2022 00:22 21,8 C 20,0 C 15,6 C 81 % 1014,9 hPa 0,0 l/m 0 min 2 min 0 W/m 12,9 km/h (3 Bft) 97,87 %
05.08.2022 00:24 21,6 C 20,0 C 15,6 C 81 % 1014,8 hPa 0,0 l/m 0 min 2 min 0 W/m 12,9 km/h (3 Bft) 97,87 %
05.08.2022 00:26 21,5 C 20,0 C 15,6 C 82 % 1014,7 hPa 0,0 l/m 0 min 0 min 0 W/m 12,9 km/h (3 Bft) 97,87 %
05.08.2022 00:28 21,3 C 20,0 C 15,6 C 82 % 1014,8 hPa 0,0 l/m 0 min 0 min 0 W/m 12,9 km/h (3 Bft) 97,87 %
05.08.2022 00:30 21,2 C 20,0 C 15,6 C 82 % 1014,8 hPa 0,0 l/m 0 min 0 min 0 W/m 16,1 km/h (3 Bft) 93,48 %
05.08.2022 00:32 21,1 C 20,0 C 16,1 C 83 % 1014,7 hPa 0,0 l/m 0 min 0 min 0 W/m 12,9 km/h (3 Bft) 93,62 %
05.08.2022 00:34 21,0 C 20,0 C 16,1 C 83 % 1014,7 hPa 0,0 l/m 0 min 0 min 0 W/m 9,7 km/h (2 Bft) 95,12 %
05.08.2022 00:36 20,9 C 19,4 C 16,1 C 83 % 1014,4 hPa 0,0 l/m 0 min 0 min 0 W/m 9,7 km/h (2 Bft) 96,23 %
05.08.2022 00:38 20,8 C 19,4 C 16,1 C 83 % 1014,4 hPa 0,0 l/m 0 min 0 min 0 W/m 9,7 km/h (2 Bft) 97,87 %
05.08.2022 00:40 20,8 C 19,4 C 16,1 C 84 % 1014,3 hPa 0,0 l/m 0 min 0 min 0 W/m 9,7 km/h (2 Bft) 95,74 %
05.08.2022 00:42 20,7 C 19,4 C 16,1 C 84 % 1014,2 hPa 0,0 l/m 0 min 2 min 0 W/m 22,5 km/h (4 Bft) 95,65 %
05.08.2022 00:44 20,6 C 19,4 C 16,1 C 84 % 1014,1 hPa 0,0 l/m 0 min 0 min 0 W/m 12,9 km/h (3 Bft) 95,74 %
05.08.2022 00:46 20,6 C 19,4 C 16,1 C 85 % 1014,1 hPa 0,0 l/m 0 min 0 min 0 W/m 9,7 km/h (2 Bft) 91,49 %
05.08.2022 00:48 20,5 C 19,4 C 16,1 C 85 % 1014,1 hPa 0,0 l/m 0 min 0 min 0 W/m 12,9 km/h (3 Bft) 95,74 %
05.08.2022 00:50 20,4 C 19,4 C 16,1 C 85 % 1014,2 hPa 0,0 l/m 0 min 0 min 0 W/m 9,7 km/h (2 Bft) 95,74 %
05.08.2022 00:52 20,3 C 19,4 C 16,1 C 86 % 1014,0 hPa 0,0 l/m 0 min 0 min 0 W/m 9,7 km/h (2 Bft) 95,74 %
05.08.2022 00:54 20,3 C 19,4 C 15,6 C 86 % 1013,9 hPa 0,0 l/m 0 min 0 min 0 W/m 9,7 km/h (2 Bft) 95,65 %
05.08.2022 00:56 20,2 C 19,4 C 16,1 C 86 % 1014,0 hPa 0,0 l/m 0 min 0 min 0 W/m 6,4 km/h (2 Bft) 97,87 %
05.08.2022 00:58 20,2 C 19,4 C 16,1 C 86 % 1014,0 hPa 0,0 l/m 0 min 0 min 0 W/m 6,4 km/h (2 Bft) 97,87 %
05.08.2022 01:00 20,2 C 19,4 C 15,6 C 86 % 1014,0 hPa 0,0 l/m 0 min 0 min 0 W/m 6,4 km/h (2 Bft) 97,87 %
05.08.2022 01:02 20,1 C 18,9 C 15,6 C 86 % 1013,9 hPa 0,0 l/m 0 min 0 min 0 W/m 9,7 km/h (2 Bft) 97,92 %
05.08.2022 01:04 20,1 C 18,9 C 15,6 C 87 % 1013,9 hPa 0,0 l/m 0 min 0 min 0 W/m 6,4 km/h (2 Bft) 95,74 %
05.08.2022 01:06 20,1 C 18,9 C 15,6 C 87 % 1013,7 hPa 0,0 l/m 0 min 0 min 0 W/m 9,7 km/h (2 Bft) 97,83 %
05.08.2022 01:08 20,0 C 18,9 C 15,6 C 87 % 1013,7 hPa 0,0 l/m 0 min 0 min 0 W/m 6,4 km/h (2 Bft) 97,87 %
05.08.2022 01:10 19,9 C 18,9 C 15,6 C 87 % 1013,7 hPa 0,0 l/m 0 min 0 min 0 W/m 6,4 km/h (2 Bft) 97,87 %
05.08.2022 01:12 19,9 C 18,9 C 15,6 C 87 % 1013,7 hPa 0,0 l/m 0 min 0 min 0 W/m 12,9 km/h (3 Bft) 97,87 %
05.08.2022 01:14 19,9 C 18,9 C 15,6 C 87 % 1013,7 hPa 0,0 l/m 0 min 0 min 0 W/m 9,7 km/h (2 Bft) 97,87 %
05.08.2022 01:16 19,9 C 18,9 C 15,6 C 87 % 1013,7 hPa 0,0 l/m 0 min 0 min 0 W/m 6,4 km/h (2 Bft) 97,83 %
05.08.2022 01:18 19,8 C 18,9 C 15,6 C 87 % 1013,7 hPa 0,0 l/m 0 min 0 min 0 W/m 6,4 km/h (2 Bft) 97,87 %
05.08.2022 01:20 19,8 C 18,9 C 15,6 C 87 % 1013,7 hPa 0,0 l/m 0 min 0 min 0 W/m 9,7 km/h (2 Bft) 100,00 %
05.08.2022 01:22 19,8 C 18,9 C 15,6 C 88 % 1013,7 hPa 0,0 l/m 0 min 0 min 0 W/m 6,4 km/h (2 Bft) 100,00 %
05.08.2022 01:24 19,7 C 18,9 C 15,6 C 88 % 1013,7 hPa 0,0 l/m 0 min 0 min 0 W/m 6,4 km/h (2 Bft) 100,00 %
05.08.2022 01:26 19,7 C 18,9 C 15,6 C 88 % 1013,7 hPa 0,0 l/m 0 min 0 min 0 W/m 6,4 km/h (2 Bft) 97,87 %
05.08.2022 01:28 19,7 C 18,9 C 15,6 C 88 % 1013,7 hPa 0,0 l/m 0 min 0 min 0 W/m 9,7 km/h (2 Bft) 100,00 %
05.08.2022 01:30 19,6 C 18,9 C 15,6 C 88 % 1013,7 hPa 0,0 l/m 0 min 0 min 0 W/m 12,9 km/h (3 Bft) 100,00 %
05.08.2022 01:32 19,6 C 18,9 C 15,6 C 88 % 1013,7 hPa 0,0 l/m 0 min 0 min 0 W/m 6,4 km/h (2 Bft) 100,00 %
05.08.2022 01:34 19,6 C 18,9 C 15,6 C 88 % 1013,8 hPa 0,0 l/m 0 min 0 min 0 W/m 9,7 km/h (2 Bft) 100,00 %
05.08.2022 01:36 19,6 C 18,9 C 15,6 C 88 % 1013,8 hPa 0,0 l/m 0 min 0 min 0 W/m 6,4 km/h (2 Bft) 100,00 %
05.08.2022 01:38 19,6 C 18,9 C 15,6 C 88 % 1013,8 hPa 0,0 l/m 0 min 0 min 0 W/m 3,2 km/h (1 Bft) 100,00 %
05.08.2022 01:40 19,6 C 18,9 C 15,6 C 88 % 1013,9 hPa 0,0 l/m 0 min 0 min 0 W/m 3,2 km/h (1 Bft) 100,00 %
05.08.2022 01:42 19,6 C 18,9 C 15,6 C 89 % 1013,8 hPa 0,0 l/m 0 min 0 min 0 W/m 6,4 km/h (2 Bft) 100,00 %
05.08.2022 01:44 19,5 C 18,9 C 15,6 C 88 % 1013,9 hPa 0,0 l/m 0 min 0 min 0 W/m 9,7 km/h (2 Bft) 100,00 %
05.08.2022 01:46 19,6 C 18,9 C 15,6 C 88 % 1013,9 hPa 0,0 l/m 0 min 0 min 0 W/m 0,0 km/h (0 Bft) 100,00 %
05.08.2022 01:48 19,6 C 18,9 C 15,6 C 89 % 1013,9 hPa 0,0 l/m 0 min 0 min 0 W/m 6,4 km/h (2 Bft) 100,00 %
05.08.2022 01:50 19,6 C 18,9 C 15,6 C 89 % 1013,9 hPa 0,0 l/m 0 min 0 min 0 W/m 6,4 km/h (2 Bft) 100,00 %
05.08.2022 01:52 19,6 C 18,9 C 15,6 C 89 % 1013,9 hPa 0,0 l/m 0 min 0 min 0 W/m 0,0 km/h (0 Bft) 100,00 %
05.08.2022 01:54 19,6 C 18,9 C 15,6 C 89 % 1014,0 hPa 0,0 l/m 0 min 0 min 0 W/m 0,0 km/h (0 Bft) 100,00 %
05.08.2022 01:56 19,6 C 18,9 C 15,6 C 89 % 1014,0 hPa 0,0 l/m 0 min 0 min 0 W/m 0,0 km/h (0 Bft) 97,83 %
05.08.2022 01:58 19,6 C 18,9 C 15,6 C 89 % 1014,0 hPa 0,0 l/m 0 min 0 min 0 W/m 0,0 km/h (0 Bft) 97,87 %
05.08.2022 02:00 19,6 C 18,9 C 15,6 C 89 % 1013,9 hPa 0,0 l/m 0 min 0 min 0 W/m 0,0 km/h (0 Bft) 100,00 %
05.08.2022 02:02 19,6 C 18,9 C 15,6 C 89 % 1013,9 hPa 0,0 l/m 0 min 0 min 0 W/m 0,0 km/h (0 Bft) 100,00 %
05.08.2022 02:04 19,6 C 18,9 C 15,6 C 89 % 1014,0 hPa 0,0 l/m 0 min 0 min 0 W/m 3,2 km/h (1 Bft) 100,00 %
05.08.2022 02:06 19,5 C 18,9 C 15,6 C 89 % 1014,1 hPa 0,0 l/m 0 min 0 min 0 W/m 6,4 km/h (2 Bft) 91,30 %
05.08.2022 02:08 19,5 C 18,9 C 15,6 C 89 % 1014,1 hPa 0,0 l/m 0 min 0 min 0 W/m 6,4 km/h (2 Bft) 100,00 %
05.08.2022 02:10 19,5 C 18,3 C 15,6 C 89 % 1014,2 hPa 0,0 l/m 0 min 0 min 0 W/m 9,7 km/h (2 Bft) 100,00 %
05.08.2022 02:12 19,5 C 18,3 C 15,6 C 89 % 1014,2 hPa 0,0 l/m 0 min 0 min 0 W/m 6,4 km/h (2 Bft) 97,87 %
05.08.2022 02:14 19,5 C 18,3 C 15,6 C 89 % 1014,2 hPa 0,0 l/m 0 min 0 min 0 W/m 9,7 km/h (2 Bft) 95,74 %
05.08.2022 02:16 19,5 C 18,3 C 15,6 C 89 % 1014,2 hPa 0,0 l/m 0 min 0 min 0 W/m 9,7 km/h (2 Bft) 95,74 %
05.08.2022 02:18 19,5 C 18,3 C 15,6 C 89 % 1014,2 hPa 0,0 l/m 0 min 0 min 0 W/m 3,2 km/h (1 Bft) 95,65 %
05.08.2022 02:20 19,4 C 18,3 C 15,0 C 89 % 1014,1 hPa 0,0 l/m 0 min 0 min 0 W/m 3,2 km/h (1 Bft) 91,49 %
05.08.2022 02:22 19,4 C 18,3 C 15,0 C 90 % 1014,2 hPa 0,0 l/m 0 min 0 min 0 W/m 6,4 km/h (2 Bft) 95,74 %
05.08.2022 02:24 19,4 C 18,3 C 15,0 C 90 % 1014,2 hPa 0,0 l/m 0 min 0 min 0 W/m 12,9 km/h (3 Bft) 95,74 %
05.08.2022 02:26 19,4 C 18,3 C 15,0 C 90 % 1014,2 hPa 0,0 l/m 0 min 0 min 0 W/m 3,2 km/h (1 Bft) 96,00 %
05.08.2022 02:28 19,4 C 18,3 C 15,0 C 90 % 1014,2 hPa 0,0 l/m 0 min 0 min 0 W/m 6,4 km/h (2 Bft) 95,74 %
05.08.2022 02:30 19,3 C 18,3 C 15,0 C 90 % 1014,1 hPa 0,0 l/m 0 min 0 min 0 W/m 6,4 km/h (2 Bft) 95,65 %
05.08.2022 02:32 19,3 C 18,3 C 15,0 C 90 % 1014,1 hPa 0,0 l/m 0 min 0 min 0 W/m 6,4 km/h (2 Bft) 95,74 %
05.08.2022 02:34 19,3 C 18,3 C 15,0 C 90 % 1014,1 hPa 0,0 l/m 0 min 0 min 0 W/m 6,4 km/h (2 Bft) 95,74 %
05.08.2022 02:36 19,2 C 18,3 C 15,0 C 90 % 1014,1 hPa 0,0 l/m 0 min 0 min 0 W/m 6,4 km/h (2 Bft) 95,74 %
05.08.2022 02:38 19,2 C 18,3 C 15,0 C 90 % 1014,1 hPa 0,0 l/m 0 min 0 min 0 W/m 6,4 km/h (2 Bft) 95,74 %
05.08.2022 02:40 19,2 C 17,8 C 15,0 C 90 % 1014,1 hPa 0,0 l/m 0 min 0 min 0 W/m 9,7 km/h (2 Bft) 93,62 %
05.08.2022 02:42 19,2 C 17,8 C 15,0 C 90 % 1014,0 hPa 0,0 l/m 0 min 0 min 0 W/m 9,7 km/h (2 Bft) 93,48 %
05.08.2022 02:44 19,1 C 17,8 C 14,4 C 90 % 1014,1 hPa 0,0 l/m 0 min 0 min 0 W/m 6,4 km/h (2 Bft) 95,74 %
05.08.2022 02:46 19,1 C 17,8 C 14,4 C 90 % 1014,1 hPa 0,0 l/m 0 min 0 min 0 W/m 9,7 km/h (2 Bft) 97,87 %
05.08.2022 02:48 19,0 C 17,8 C 14,4 C 91 % 1014,1 hPa 0,0 l/m 0 min 0 min 0 W/m 12,9 km/h (3 Bft) 95,74 %
05.08.2022 02:50 18,9 C 17,8 C 14,4 C 91 % 1014,1 hPa 0,0 l/m 0 min 0 min 0 W/m 12,9 km/h (3 Bft) 97,87 %
05.08.2022 02:52 18,9 C 17,8 C 14,4 C 91 % 1014,1 hPa 0,0 l/m 0 min 0 min 0 W/m 12,9 km/h (3 Bft) 97,87 %
05.08.2022 02:54 18,9 C 17,8 C 14,4 C 91 % 1014,1 hPa 0,0 l/m 0 min 0 min 0 W/m 12,9 km/h (3 Bft) 97,83 %
05.08.2022 02:56 18,8 C 17,8 C 14,4 C 91 % 1014,1 hPa 0,0 l/m 0 min 0 min 0 W/m 6,4 km/h (2 Bft) 97,87 %
05.08.2022 02:58 18,8 C 17,8 C 14,4 C 91 % 1014,1 hPa 0,0 l/m 0 min 0 min 0 W/m 12,9 km/h (3 Bft) 97,87 %
05.08.2022 03:00 18,8 C 17,8 C 14,4 C 91 % 1014,1 hPa 0,0 l/m 0 min 0 min 0 W/m 16,1 km/h (3 Bft) 100,00 %
05.08.2022 03:02 18,7 C 17,8 C 14,4 C 91 % 1014,1 hPa 0,0 l/m 0 min 0 min 0 W/m 16,1 km/h (3 Bft) 97,87 %
05.08.2022 03:04 18,7 C 17,8 C 14,4 C 92 % 1014,1 hPa 0,0 l/m 0 min 0 min 0 W/m 9,7 km/h (2 Bft) 97,87 %
05.08.2022 03:06 18,7 C 17,8 C 14,4 C 92 % 1014,1 hPa 0,0 l/m 0 min 0 min 0 W/m 9,7 km/h (2 Bft) 100,00 %
05.08.2022 03:08 18,6 C 17,8 C 14,4 C 92 % 1014,1 hPa 0,0 l/m 0 min 0 min 0 W/m 12,9 km/h (3 Bft) 100,00 %
05.08.2022 03:10 18,6 C 17,8 C 14,4 C 92 % 1014,0 hPa 0,0 l/m 0 min 0 min 0 W/m 16,1 km/h (3 Bft) 100,00 %
05.08.2022 03:12 18,5 C 17,2 C 13,9 C 92 % 1014,1 hPa 0,0 l/m 0 min 0 min 0 W/m 12,9 km/h (3 Bft) 97,87 %
05.08.2022 03:14 18,5 C 17,2 C 14,4 C 92 % 1014,1 hPa 0,0 l/m 0 min 0 min 0 W/m 9,7 km/h (2 Bft) 100,00 %
05.08.2022 03:16 18,4 C 17,2 C 14,4 C 92 % 1014,1 hPa 0,0 l/m 0 min 0 min 0 W/m 6,4 km/h (2 Bft) 100,00 %
05.08.2022 03:18 18,4 C 17,8 C 14,4 C 92 % 1014,1 hPa 0,0 l/m 0 min 0 min 0 W/m 6,4 km/h (2 Bft) 100,00 %
05.08.2022 03:20 18,4 C 17,2 C 14,4 C 93 % 1014,1 hPa 0,0 l/m 0 min 0 min 0 W/m 12,9 km/h (3 Bft) 97,87 %
05.08.2022 03:22 18,4 C 17,8 C 14,4 C 93 % 1014,0 hPa 0,0 l/m 0 min 0 min 0 W/m 9,7 km/h (2 Bft) 100,00 %
05.08.2022 03:24 18,3 C 17,2 C 14,4 C 93 % 1013,9 hPa 0,0 l/m 0 min 0 min 0 W/m 16,1 km/h (3 Bft) 100,00 %
05.08.2022 03:26 18,3 C 17,2 C 14,4 C 93 % 1013,8 hPa 0,0 l/m 0 min 0 min 0 W/m 12,9 km/h (3 Bft) 100,00 %
05.08.2022 03:28 18,3 C 17,2 C 14,4 C 93 % 1013,9 hPa 0,0 l/m 0 min 0 min 0 W/m 6,4 km/h (2 Bft) 100,00 %
05.08.2022 03:30 18,3 C 17,2 C 14,4 C 93 % 1013,9 hPa 0,0 l/m 0 min 0 min 0 W/m 9,7 km/h (2 Bft) 96,15 %
05.08.2022 03:32 18,3 C 17,2 C 14,4 C 93 % 1013,9 hPa 0,0 l/m 0 min 0 min 0 W/m 6,4 km/h (2 Bft) 97,92 %
05.08.2022 03:34 18,2 C 17,2 C 14,4 C 93 % 1014,0 hPa 0,0 l/m 0 min 0 min 0 W/m 9,7 km/h (2 Bft) 97,87 %
05.08.2022 03:36 18,2 C 17,2 C 14,4 C 94 % 1014,1 hPa 0,0 l/m 0 min 0 min 0 W/m 3,2 km/h (1 Bft) 94,92 %
05.08.2022 03:38 18,2 C 17,2 C 14,4 C 93 % 1014,0 hPa 0,0 l/m 0 min 0 min 0 W/m 12,9 km/h (3 Bft) 97,14 %
05.08.2022 03:40 18,2 C 17,2 C 14,4 C 93 % 1014,1 hPa 0,0 l/m 0 min 0 min 0 W/m 9,7 km/h (2 Bft) 97,87 %
05.08.2022 03:42 18,2 C 17,2 C 14,4 C 93 % 1014,1 hPa 0,0 l/m 0 min 0 min 0 W/m 19,3 km/h (3 Bft) 97,83 %
05.08.2022 03:44 18,2 C 17,2 C 14,4 C 94 % 1014,2 hPa 0,0 l/m 0 min 0 min 0 W/m 16,1 km/h (3 Bft) 95,74 %
05.08.2022 03:46 18,2 C 17,2 C 14,4 C 94 % 1014,3 hPa 0,0 l/m 0 min 0 min 0 W/m 12,9 km/h (3 Bft) 95,74 %
05.08.2022 03:48 18,2 C 17,2 C 14,4 C 94 % 1014,4 hPa 0,0 l/m 0 min 0 min 0 W/m 9,7 km/h (2 Bft) 97,87 %
05.08.2022 03:50 18,2 C 17,2 C 14,4 C 94 % 1014,5 hPa 0,0 l/m 0 min 0 min 0 W/m 9,7 km/h (2 Bft) 97,87 %
05.08.2022 03:52 18,2 C 17,2 C 14,4 C 94 % 1014,7 hPa 0,0 l/m 0 min 0 min 0 W/m 9,7 km/h (2 Bft) 97,87 %
05.08.2022 03:54 18,2 C 17,8 C 14,4 C 94 % 1014,9 hPa 0,0 l/m 0 min 0 min 0 W/m 9,7 km/h (2 Bft) 97,83 %
05.08.2022 03:56 18,2 C 17,8 C 14,4 C 94 % 1015,2 hPa 0,0 l/m 0 min 0 min 0 W/m 19,3 km/h (3 Bft) 95,74 %
05.08.2022 03:58 18,2 C 17,8 C 14,4 C 94 % 1015,2 hPa 0,0 l/m 0 min 2 min 0 W/m 6,4 km/h (2 Bft) 97,87 %
05.08.2022 04:00 18,3 C 17,8 C 14,4 C 94 % 1015,3 hPa 0,0 l/m 0 min 2 min 0 W/m 6,4 km/h (2 Bft) 95,74 %
05.08.2022 04:05 18,3 C 17,2 C 14,4 C 94 % 1015,2 hPa 0,2 l/m 0 min 5 min 0 W/m 12,9 km/h (3 Bft) 96,55 %
05.08.2022 04:06 18,3 C 17,2 C 14,4 C 94 % 1015,2 hPa 0,0 l/m 0 min 1 min 0 W/m 6,4 km/h (2 Bft) 96,67 %
05.08.2022 04:08 18,3 C 17,2 C 13,9 C 94 % 1015,2 hPa 0,0 l/m 0 min 2 min 0 W/m 12,9 km/h (3 Bft) 97,83 %
05.08.2022 04:10 18,3 C 17,2 C 13,9 C 94 % 1015,3 hPa 0,0 l/m 0 min 2 min 0 W/m 12,9 km/h (3 Bft) 94,29 %
05.08.2022 04:12 18,3 C 17,2 C 13,9 C 95 % 1015,3 hPa 0,0 l/m 0 min 2 min 0 W/m 6,4 km/h (2 Bft) 95,12 %
05.08.2022 04:14 18,3 C 17,2 C 13,9 C 95 % 1015,3 hPa 0,2 l/m 0 min 2 min 0 W/m 9,7 km/h (2 Bft) 96,30 %
05.08.2022 04:16 18,3 C 17,2 C 13,9 C 95 % 1015,4 hPa 0,0 l/m 0 min 2 min 0 W/m 9,7 km/h (2 Bft) 95,74 %
05.08.2022 04:18 18,3 C 17,2 C 13,9 C 95 % 1015,4 hPa 0,4 l/m 0 min 2 min 0 W/m 9,7 km/h (2 Bft) 93,48 %
05.08.2022 04:20 18,4 C 17,2 C 13,9 C 95 % 1015,3 hPa 0,2 l/m 0 min 2 min 0 W/m 6,4 km/h (2 Bft) 95,74 %
05.08.2022 04:22 18,4 C 17,2 C 13,9 C 95 % 1015,2 hPa 0,4 l/m 0 min 2 min 0 W/m 6,4 km/h (2 Bft) 97,87 %
05.08.2022 04:24 18,4 C 16,7 C 13,9 C 95 % 1015,1 hPa 0,2 l/m 0 min 2 min 0 W/m 16,1 km/h (3 Bft) 97,87 %
05.08.2022 04:26 18,3 C 16,7 C 13,3 C 95 % 1015,2 hPa 0,0 l/m 0 min 2 min 0 W/m 9,7 km/h (2 Bft) 97,87 %
05.08.2022 04:28 18,3 C 16,7 C 13,3 C 95 % 1015,2 hPa 0,4 l/m 0 min 2 min 0 W/m 9,7 km/h (2 Bft) 95,74 %
05.08.2022 04:30 18,3 C 17,2 C 13,3 C 95 % 1015,2 hPa 0,4 l/m 0 min 2 min 0 W/m 6,4 km/h (2 Bft) 95,65 %
05.08.2022 04:32 18,4 C 16,7 C 13,3 C 95 % 1015,2 hPa 0,2 l/m 0 min 2 min 0 W/m 6,4 km/h (2 Bft) 95,83 %
05.08.2022 04:34 18,3 C 16,7 C 13,3 C 95 % 1015,2 hPa 0,2 l/m 0 min 2 min 0 W/m 6,4 km/h (2 Bft) 95,74 %
05.08.2022 04:36 18,4 C 16,7 C 13,9 C 95 % 1015,0 hPa 0,0 l/m 0 min 2 min 0 W/m 3,2 km/h (1 Bft) 100,00 %
05.08.2022 04:38 18,3 C 16,7 C 13,3 C 96 % 1015,0 hPa 0,2 l/m 0 min 2 min 0 W/m 3,2 km/h (1 Bft) 100,00 %
05.08.2022 04:40 18,3 C 16,7 C 13,9 C 96 % 1014,9 hPa 0,2 l/m 0 min 2 min 0 W/m 3,2 km/h (1 Bft) 100,00 %
05.08.2022 04:42 18,3 C 16,7 C 13,3 C 96 % 1014,8 hPa 0,0 l/m 0 min 2 min 0 W/m 3,2 km/h (1 Bft) 100,00 %
05.08.2022 04:44 18,3 C 16,7 C 13,3 C 96 % 1014,9 hPa 0,2 l/m 0 min 2 min 0 W/m 6,4 km/h (2 Bft) 100,00 %
05.08.2022 04:46 18,3 C 16,7 C 13,9 C 96 % 1014,9 hPa 0,2 l/m 0 min 2 min 0 W/m 3,2 km/h (1 Bft) 100,00 %
05.08.2022 04:48 18,3 C 16,7 C 13,9 C 96 % 1014,8 hPa 0,0 l/m 0 min 2 min 0 W/m 0,0 km/h (0 Bft) 100,00 %
05.08.2022 04:50 18,3 C 16,7 C 13,9 C 96 % 1014,7 hPa 0,0 l/m 0 min 2 min 0 W/m 3,2 km/h (1 Bft) 97,87 %
05.08.2022 04:52 18,2 C 16,7 C 13,9 C 96 % 1014,5 hPa 0,0 l/m 0 min 2 min 0 W/m 3,2 km/h (1 Bft) 95,74 %
05.08.2022 04:54 18,2 C 16,7 C 13,3 C 96 % 1014,3 hPa 0,0 l/m 0 min 0 min 0 W/m 6,4 km/h (2 Bft) 100,00 %
05.08.2022 04:56 18,2 C 16,7 C 13,3 C 96 % 1014,0 hPa 0,0 l/m 0 min 0 min 0 W/m 3,2 km/h (1 Bft) 97,87 %
05.08.2022 04:58 18,2 C 16,7 C 13,3 C 96 % 1013,9 hPa 0,0 l/m 0 min 0 min 0 W/m 6,4 km/h (2 Bft) 100,00 %
05.08.2022 05:00 18,2 C 16,7 C 13,3 C 96 % 1013,8 hPa 0,0 l/m 0 min 0 min 0 W/m 3,2 km/h (1 Bft) 97,87 %
05.08.2022 05:02 18,2 C 16,7 C 13,3 C 96 % 1013,7 hPa 0,0 l/m 0 min 2 min 0 W/m 6,4 km/h (2 Bft) 100,00 %
05.08.2022 05:04 18,2 C 16,7 C 13,3 C 96 % 1013,5 hPa 0,0 l/m 0 min 0 min 0 W/m 6,4 km/h (2 Bft) 97,87 %
05.08.2022 05:06 18,1 C 16,7 C 13,3 C 96 % 1013,1 hPa 0,0 l/m 0 min 0 min 0 W/m 9,7 km/h (2 Bft) 97,83 %
05.08.2022 05:08 18,1 C 16,7 C 13,3 C 96 % 1013,1 hPa 0,0 l/m 0 min 0 min 0 W/m 12,9 km/h (3 Bft) 97,87 %
05.08.2022 05:10 18,1 C 16,7 C 13,3 C 96 % 1013,4 hPa 0,0 l/m 0 min 0 min 0 W/m 6,4 km/h (2 Bft) 97,87 %
05.08.2022 05:12 18,1 C 16,7 C 13,3 C 96 % 1013,7 hPa 0,0 l/m 0 min 0 min 0 W/m 6,4 km/h (2 Bft) 97,87 %
05.08.2022 05:14 18,1 C 16,7 C 13,3 C 96 % 1013,9 hPa 0,0 l/m 0 min 0 min 0 W/m 6,4 km/h (2 Bft) 97,87 %
05.08.2022 05:16 18,1 C 16,7 C 13,3 C 96 % 1014,1 hPa 0,0 l/m 0 min 0 min 0 W/m 6,4 km/h (2 Bft) 97,87 %
05.08.2022 05:18 18,0 C 16,7 C 13,3 C 96 % 1014,1 hPa 0,0 l/m 0 min 0 min 0 W/m 3,2 km/h (1 Bft) 97,83 %
05.08.2022 05:20 18,1 C 16,7 C 13,3 C 96 % 1013,9 hPa 0,0 l/m 0 min 0 min 0 W/m 0,0 km/h (0 Bft) 95,74 %
05.08.2022 05:22 18,1 C 16,7 C 13,3 C 97 % 1013,8 hPa 0,0 l/m 0 min 0 min 0 W/m 3,2 km/h (1 Bft) 95,74 %
05.08.2022 05:24 18,1 C 16,7 C 13,3 C 97 % 1013,9 hPa 0,0 l/m 0 min 0 min 0 W/m 9,7 km/h (2 Bft) 97,87 %
05.08.2022 05:26 18,0 C 16,7 C 13,3 C 97 % 1014,1 hPa 0,0 l/m 0 min 0 min 0 W/m 6,4 km/h (2 Bft) 95,74 %
05.08.2022 05:28 18,0 C 16,7 C 13,3 C 97 % 1014,3 hPa 0,0 l/m 0 min 0 min 0 W/m 9,7 km/h (2 Bft) 95,65 %
05.08.2022 05:30 18,0 C 16,7 C 13,3 C 97 % 1014,4 hPa 0,0 l/m 0 min 0 min 0 W/m 12,9 km/h (3 Bft) 95,74 %
05.08.2022 05:32 18,0 C 16,7 C 13,3 C 97 % 1014,6 hPa 0,0 l/m 0 min 0 min 0 W/m 6,4 km/h (2 Bft) 98,00 %
05.08.2022 05:34 18,0 C 16,7 C 13,3 C 97 % 1014,7 hPa 0,0 l/m 0 min 0 min 0 W/m 9,7 km/h (2 Bft) 97,87 %
05.08.2022 05:36 18,1 C 16,7 C 13,3 C 97 % 1014,8 hPa 0,0 l/m 0 min 0 min 0 W/m 3,2 km/h (1 Bft) 95,74 %
05.08.2022 05:38 18,1 C 16,7 C 13,3 C 97 % 1014,8 hPa 0,0 l/m 0 min 0 min 0 W/m 6,4 km/h (2 Bft) 97,87 %
05.08.2022 05:40 18,1 C 17,2 C 13,9 C 97 % 1014,8 hPa 0,0 l/m 0 min 0 min 0 W/m 3,2 km/h (1 Bft) 97,87 %
05.08.2022 05:42 18,1 C 17,2 C 13,9 C 97 % 1014,9 hPa 0,0 l/m 0 min 0 min 0 W/m 6,4 km/h (2 Bft) 97,83 %
05.08.2022 05:44 18,2 C 17,2 C 13,9 C 97 % 1014,9 hPa 0,0 l/m 0 min 0 min 0 W/m 6,4 km/h (2 Bft) 97,87 %
05.08.2022 05:46 18,2 C 17,2 C 13,9 C 97 % 1014,9 hPa 0,0 l/m 0 min 0 min 0 W/m 3,2 km/h (1 Bft) 97,87 %
05.08.2022 05:48 18,2 C 17,2 C 13,9 C 97 % 1014,9 hPa 0,0 l/m 0 min 0 min 0 W/m 3,2 km/h (1 Bft) 97,14 %
05.08.2022 05:50 18,2 C 17,2 C 13,9 C 97 % 1014,9 hPa 0,0 l/m 0 min 0 min 0 W/m 3,2 km/h (1 Bft) 98,11 %
05.08.2022 05:52 18,2 C 17,2 C 13,9 C 97 % 1014,9 hPa 0,0 l/m 0 min 0 min 0 W/m 3,2 km/h (1 Bft) 97,87 %
05.08.2022 05:54 18,2 C 17,2 C 13,9 C 97 % 1014,9 hPa 0,0 l/m 0 min 0 min 0 W/m 3,2 km/h (1 Bft) 100,00 %
05.08.2022 05:56 18,2 C 17,2 C 13,9 C 97 % 1014,9 hPa 0,0 l/m 0 min 0 min 0 W/m 3,2 km/h (1 Bft) 97,87 %
05.08.2022 05:58 18,2 C 17,2 C 13,3 C 97 % 1014,8 hPa 0,0 l/m 0 min 0 min 0 W/m 3,2 km/h (1 Bft) 97,87 %
05.08.2022 06:00 18,2 C 17,2 C 13,3 C 97 % 1014,7 hPa 0,0 l/m 0 min 0 min 0 W/m 6,4 km/h (2 Bft) 97,87 %
05.08.2022 06:02 18,2 C 17,2 C 13,9 C 97 % 1014,7 hPa 0,0 l/m 0 min 0 min 0 W/m 6,4 km/h (2 Bft) 95,83 %
05.08.2022 06:04 18,2 C 17,2 C 13,3 C 97 % 1014,6 hPa 0,0 l/m 0 min 2 min 0 W/m 3,2 km/h (1 Bft) 97,87 %
05.08.2022 06:07 18,2 C 17,2 C 13,9 C 97 % 1014,5 hPa 0,0 l/m 0 min 0 min 0 W/m 3,2 km/h (1 Bft) 97,87 %
05.08.2022 06:08 18,2 C 17,2 C 13,9 C 97 % 1014,5 hPa 0,0 l/m 0 min 0 min 0 W/m 6,4 km/h (2 Bft) 97,89 %
05.08.2022 06:10 18,2 C 17,2 C 13,3 C 97 % 1014,6 hPa 0,0 l/m 0 min 0 min 0 W/m 3,2 km/h (1 Bft) 95,74 %
05.08.2022 06:12 18,2 C 17,2 C 13,3 C 97 % 1014,6 hPa 0,0 l/m 0 min 0 min 0 W/m 3,2 km/h (1 Bft) 95,74 %
05.08.2022 06:14 18,2 C 17,2 C 13,9 C 97 % 1014,6 hPa 0,0 l/m 0 min 0 min 0 W/m 3,2 km/h (1 Bft) 97,87 %
05.08.2022 06:16 18,2 C 17,2 C 13,3 C 97 % 1014,4 hPa 0,0 l/m 0 min 0 min 0 W/m 12,9 km/h (3 Bft) 97,83 %
05.08.2022 06:18 18,1 C 17,2 C 13,3 C 97 % 1014,3 hPa 0,0 l/m 0 min 0 min 0 W/m 12,9 km/h (3 Bft) 97,87 %
05.08.2022 06:20 18,1 C 17,2 C 13,3 C 97 % 1014,2 hPa 0,0 l/m 0 min 0 min 0 W/m 3,2 km/h (1 Bft) 97,87 %
05.08.2022 06:22 18,1 C 17,2 C 13,3 C 97 % 1014,2 hPa 0,0 l/m 0 min 0 min 0 W/m 6,4 km/h (2 Bft) 95,74 %
05.08.2022 06:24 18,0 C 17,2 C 13,3 C 97 % 1014,3 hPa 0,0 l/m 0 min 0 min 0 W/m 9,7 km/h (2 Bft) 95,74 %
05.08.2022 06:26 18,0 C 17,2 C 13,3 C 97 % 1014,3 hPa 0,0 l/m 0 min 0 min 0 W/m 6,4 km/h (2 Bft) 95,74 %
05.08.2022 06:28 18,0 C 17,2 C 13,3 C 97 % 1014,3 hPa 0,0 l/m 0 min 0 min 0 W/m 3,2 km/h (1 Bft) 97,83 %
05.08.2022 06:30 17,9 C 17,2 C 13,3 C 97 % 1014,4 hPa 0,0 l/m 0 min 0 min 0 W/m 6,4 km/h (2 Bft) 97,96 %
05.08.2022 06:32 17,9 C 17,2 C 13,3 C 97 % 1014,4 hPa 0,0 l/m 0 min 0 min 4 W/m 6,4 km/h (2 Bft) 97,92 %
05.08.2022 06:34 17,9 C 17,2 C 13,3 C 98 % 1014,4 hPa 0,0 l/m 0 min 0 min 5 W/m 9,7 km/h (2 Bft) 93,62 %
05.08.2022 06:36 17,9 C 17,2 C 13,3 C 98 % 1014,2 hPa 0,0 l/m 0 min 0 min 7 W/m 6,4 km/h (2 Bft) 97,87 %
05.08.2022 06:38 17,9 C 17,2 C 13,3 C 98 % 1014,2 hPa 0,0 l/m 0 min 0 min 11 W/m 3,2 km/h (1 Bft) 97,87 %
05.08.2022 06:40 17,9 C 17,2 C 13,3 C 98 % 1014,1 hPa 0,0 l/m 0 min 0 min 12 W/m 3,2 km/h (1 Bft) 95,65 %
05.08.2022 06:42 17,9 C 16,7 C 13,3 C 98 % 1014,1 hPa 0,0 l/m 0 min 0 min 14 W/m 6,4 km/h (2 Bft) 97,87 %
05.08.2022 06:44 17,9 C 16,7 C 13,3 C 98 % 1014,1 hPa 0,0 l/m 0 min 0 min 16 W/m 6,4 km/h (2 Bft) 97,87 %
05.08.2022 06:46 17,8 C 16,7 C 13,3 C 98 % 1014,1 hPa 0,0 l/m 0 min 0 min 14 W/m 12,9 km/h (3 Bft) 95,74 %
05.08.2022 06:48 17,8 C 16,7 C 13,3 C 98 % 1014,2 hPa 0,0 l/m 0 min 0 min 14 W/m 6,4 km/h (2 Bft) 97,87 %
05.08.2022 06:50 17,8 C 16,7 C 13,3 C 98 % 1014,3 hPa 0,0 l/m 0 min 0 min 16 W/m 3,2 km/h (1 Bft) 97,87 %
05.08.2022 06:52 17,8 C 16,7 C 13,3 C 98 % 1014,3 hPa 0,0 l/m 0 min 0 min 17 W/m 6,4 km/h (2 Bft) 95,65 %
05.08.2022 06:54 17,8 C 16,7 C 13,3 C 97 % 1014,4 hPa 0,0 l/m 0 min 0 min 19 W/m 3,2 km/h (1 Bft) 95,74 %
05.08.2022 06:56 17,8 C 17,2 C 13,3 C 97 % 1014,5 hPa 0,0 l/m 0 min 0 min 20 W/m 3,2 km/h (1 Bft) 97,87 %
05.08.2022 06:58 17,8 C 17,2 C 13,3 C 98 % 1014,5 hPa 0,0 l/m 0 min 0 min 21 W/m 6,4 km/h (2 Bft) 95,74 %
05.08.2022 07:00 17,8 C 17,2 C 13,3 C 98 % 1014,6 hPa 0,0 l/m 0 min 0 min 19 W/m 6,4 km/h (2 Bft) 97,87 %
05.08.2022 07:02 17,8 C 17,2 C 13,3 C 98 % 1014,5 hPa 0,0 l/m 0 min 0 min 21 W/m 6,4 km/h (2 Bft) 95,65 %
05.08.2022 07:04 17,8 C 17,2 C 13,3 C 98 % 1014,4 hPa 0,0 l/m 0 min 0 min 27 W/m 6,4 km/h (2 Bft) 95,74 %
05.08.2022 07:06 17,8 C 17,2 C 13,3 C 98 % 1014,4 hPa 0,0 l/m 0 min 0 min 32 W/m 9,7 km/h (2 Bft) 97,87 %
05.08.2022 07:08 17,8 C 17,2 C 13,3 C 98 % 1014,4 hPa 0,0 l/m 0 min 0 min 36 W/m 9,7 km/h (2 Bft) 95,74 %
05.08.2022 07:10 17,8 C 17,2 C 13,3 C 98 % 1014,4 hPa 0,0 l/m 0 min 0 min 37 W/m 3,2 km/h (1 Bft) 95,74 %
05.08.2022 07:12 17,8 C 17,2 C 13,3 C 98 % 1014,4 hPa 0,0 l/m 0 min 0 min 37 W/m 3,2 km/h (1 Bft) 100,00 %
05.08.2022 07:14 17,8 C 17,2 C 13,3 C 98 % 1014,4 hPa 0,0 l/m 0 min 0 min 39 W/m 3,2 km/h (1 Bft) 100,00 %
05.08.2022 07:16 17,8 C 17,2 C 13,3 C 98 % 1014,4 hPa 0,0 l/m 0 min 0 min 40 W/m 3,2 km/h (1 Bft) 95,65 %
05.08.2022 07:18 17,9 C 17,2 C 13,3 C 98 % 1014,5 hPa 0,0 l/m 0 min 0 min 39 W/m 3,2 km/h (1 Bft) 100,00 %
05.08.2022 07:20 17,9 C 17,2 C 13,3 C 98 % 1014,5 hPa 0,0 l/m 0 min 0 min 35 W/m 3,2 km/h (1 Bft) 100,00 %
05.08.2022 07:22 17,9 C 17,2 C 13,3 C 98 % 1014,6 hPa 0,0 l/m 0 min 0 min 28 W/m 12,9 km/h (3 Bft) 100,00 %
05.08.2022 07:24 17,8 C 17,2 C 13,3 C 98 % 1014,6 hPa 0,0 l/m 0 min 0 min 29 W/m 9,7 km/h (2 Bft) 100,00 %
05.08.2022 07:26 17,8 C 17,2 C 13,3 C 98 % 1014,7 hPa 0,0 l/m 0 min 0 min 28 W/m 9,7 km/h (2 Bft) 100,00 %
05.08.2022 07:28 17,8 C 17,2 C 13,3 C 98 % 1014,7 hPa 0,0 l/m 0 min 0 min 21 W/m 3,2 km/h (1 Bft) 97,83 %
05.08.2022 07:30 17,8 C 17,2 C 13,3 C 98 % 1014,8 hPa 0,0 l/m 0 min 0 min 19 W/m 12,9 km/h (3 Bft) 100,00 %
05.08.2022 07:32 17,8 C 17,2 C 13,3 C 98 % 1014,8 hPa 0,0 l/m 0 min 0 min 21 W/m 6,4 km/h (2 Bft) 100,00 %
05.08.2022 07:34 17,8 C 17,2 C 13,3 C 98 % 1014,7 hPa 0,0 l/m 0 min 0 min 18 W/m 9,7 km/h (2 Bft) 100,00 %
05.08.2022 07:36 17,8 C 17,2 C 13,3 C 98 % 1014,8 hPa 0,0 l/m 0 min 0 min 17 W/m 12,9 km/h (3 Bft) 100,00 %
05.08.2022 07:38 17,8 C 17,2 C 13,3 C 98 % 1014,8 hPa 0,0 l/m 0 min 0 min 17 W/m 6,4 km/h (2 Bft) 97,83 %
05.08.2022 07:40 17,8 C 17,2 C 13,3 C 98 % 1014,7 hPa 0,0 l/m 0 min 0 min 16 W/m 9,7 km/h (2 Bft) 100,00 %
05.08.2022 07:42 17,8 C 17,2 C 13,3 C 98 % 1014,8 hPa 0,0 l/m 0 min 0 min 21 W/m 12,9 km/h (3 Bft) 100,00 %
05.08.2022 07:44 17,8 C 17,2 C 13,3 C 98 % 1014,7 hPa 0,0 l/m 0 min 0 min 25 W/m 12,9 km/h (3 Bft) 100,00 %
05.08.2022 07:46 17,7 C 17,2 C 13,3 C 98 % 1014,8 hPa 0,0 l/m 0 min 0 min 25 W/m 9,7 km/h (2 Bft) 97,87 %
05.08.2022 07:48 17,7 C 16,7 C 12,8 C 98 % 1014,9 hPa 0,0 l/m 0 min 0 min 20 W/m 29,0 km/h (5 Bft) 97,87 %
05.08.2022 07:50 17,6 C 16,7 C 12,8 C 98 % 1014,9 hPa 0,0 l/m 0 min 0 min 18 W/m 22,5 km/h (4 Bft) 97,87 %
05.08.2022 07:52 17,5 C 16,7 C 12,8 C 98 % 1015,0 hPa 0,0 l/m 0 min 0 min 16 W/m 16,1 km/h (3 Bft) 93,48 %
05.08.2022 07:54 17,4 C 16,7 C 12,8 C 97 % 1015,1 hPa 0,0 l/m 0 min 0 min 16 W/m 12,9 km/h (3 Bft) 93,62 %
05.08.2022 07:56 17,3 C 16,7 C 12,8 C 97 % 1015,1 hPa 0,0 l/m 0 min 0 min 17 W/m 22,5 km/h (4 Bft) 95,74 %
05.08.2022 07:58 17,3 C 16,7 C 12,8 C 97 % 1015,0 hPa 0,0 l/m 0 min 0 min 20 W/m 12,9 km/h (3 Bft) 95,74 %
05.08.2022 08:00 17,2 C 16,7 C 12,8 C 97 % 1014,9 hPa 0,0 l/m 0 min 0 min 24 W/m 12,9 km/h (3 Bft) 93,62 %
05.08.2022 08:02 17,2 C 16,7 C 12,8 C 97 % 1014,9 hPa 0,0 l/m 0 min 0 min 30 W/m 12,9 km/h (3 Bft) 93,62 %
05.08.2022 08:04 17,1 C 16,7 C 12,8 C 97 % 1015,0 hPa 0,0 l/m 0 min 0 min 33 W/m 9,7 km/h (2 Bft) 95,65 %
05.08.2022 08:06 17,1 C 16,7 C 12,8 C 97 % 1015,0 hPa 0,0 l/m 0 min 0 min 39 W/m 12,9 km/h (3 Bft) 95,74 %
05.08.2022 08:08 17,1 C 16,7 C 12,2 C 97 % 1015,0 hPa 0,0 l/m 0 min 0 min 41 W/m 16,1 km/h (3 Bft) 95,74 %
05.08.2022 08:10 17,0 C 16,7 C 12,2 C 97 % 1015,0 hPa 0,0 l/m 0 min 0 min 37 W/m 12,9 km/h (3 Bft) 97,87 %
05.08.2022 08:12 17,0 C 16,7 C 12,2 C 97 % 1015,0 hPa 0,0 l/m 0 min 0 min 33 W/m 6,4 km/h (2 Bft) 89,36 %
05.08.2022 08:14 16,9 C 16,7 C 12,2 C 97 % 1015,0 hPa 0,0 l/m 0 min 0 min 32 W/m 19,3 km/h (3 Bft) 95,74 %
05.08.2022 08:16 16,9 C 16,7 C 12,2 C 97 % 1015,0 hPa 0,0 l/m 0 min 0 min 33 W/m 9,7 km/h (2 Bft) 95,65 %
05.08.2022 08:18 16,9 C 16,7 C 12,2 C 97 % 1015,0 hPa 0,0 l/m 0 min 0 min 31 W/m 12,9 km/h (3 Bft) 95,74 %
05.08.2022 08:20 16,9 C 16,7 C 12,2 C 97 % 1015,1 hPa 0,0 l/m 0 min 0 min 26 W/m 6,4 km/h (2 Bft) 97,87 %
05.08.2022 08:22 16,9 C 16,7 C 12,2 C 97 % 1015,2 hPa 0,0 l/m 0 min 0 min 22 W/m 6,4 km/h (2 Bft) 97,87 %
05.08.2022 08:24 16,9 C 16,7 C 12,2 C 97 % 1015,2 hPa 0,0 l/m 0 min 0 min 22 W/m 12,9 km/h (3 Bft) 97,87 %
05.08.2022 08:26 16,9 C 16,7 C 12,2 C 97 % 1015,3 hPa 0,0 l/m 0 min 0 min 30 W/m 6,4 km/h (2 Bft) 97,83 %
05.08.2022 08:28 16,9 C 16,7 C 12,2 C 97 % 1015,2 hPa 0,0 l/m 0 min 0 min 37 W/m 6,4 km/h (2 Bft) 97,87 %
05.08.2022 08:30 16,9 C 16,7 C 12,8 C 97 % 1015,2 hPa 0,0 l/m 0 min 0 min 44 W/m 12,9 km/h (3 Bft) 97,87 %
05.08.2022 08:32 16,9 C 16,7 C 12,2 C 97 % 1015,3 hPa 0,0 l/m 0 min 0 min 37 W/m 9,7 km/h (2 Bft) 94,29 %
05.08.2022 08:34 16,9 C 16,7 C 12,2 C 97 % 1015,4 hPa 0,0 l/m 0 min 0 min 33 W/m 9,7 km/h (2 Bft) 98,11 %
05.08.2022 08:36 16,9 C 16,7 C 12,2 C 97 % 1015,4 hPa 0,0 l/m 0 min 0 min 34 W/m 6,4 km/h (2 Bft) 98,31 %
05.08.2022 08:38 16,9 C 16,7 C 12,2 C 97 % 1015,4 hPa 0,0 l/m 0 min 0 min 33 W/m 6,4 km/h (2 Bft) 100,00 %
05.08.2022 08:40 16,9 C 16,7 C 12,2 C 97 % 1015,4 hPa 0,0 l/m 0 min 0 min 38 W/m 12,9 km/h (3 Bft) 100,00 %
05.08.2022 08:42 16,9 C 16,7 C 12,2 C 97 % 1015,5 hPa 0,0 l/m 0 min 0 min 33 W/m 22,5 km/h (4 Bft) 100,00 %
05.08.2022 08:44 16,9 C 16,7 C 12,2 C 97 % 1015,5 hPa 0,0 l/m 0 min 0 min 30 W/m 9,7 km/h (2 Bft) 100,00 %
05.08.2022 08:46 16,9 C 16,7 C 12,2 C 97 % 1015,4 hPa 0,0 l/m 0 min 0 min 28 W/m 9,7 km/h (2 Bft) 100,00 %
05.08.2022 08:48 16,9 C 16,7 C 12,2 C 97 % 1015,5 hPa 0,0 l/m 0 min 0 min 28 W/m 9,7 km/h (2 Bft) 100,00 %
05.08.2022 08:50 16,9 C 16,7 C 12,2 C 96 % 1015,5 hPa 0,0 l/m 0 min 0 min 31 W/m 9,7 km/h (2 Bft) 100,00 %
05.08.2022 08:52 16,9 C 16,7 C 12,2 C 96 % 1015,5 hPa 0,0 l/m 0 min 0 min 36 W/m 9,7 km/h (2 Bft) 100,00 %
05.08.2022 08:54 16,9 C 16,7 C 12,2 C 96 % 1015,4 hPa 0,0 l/m 0 min 0 min 41 W/m 9,7 km/h (2 Bft) 100,00 %
05.08.2022 08:56 16,9 C 16,7 C 12,2 C 96 % 1015,5 hPa 0,0 l/m 0 min 0 min 48 W/m 6,4 km/h (2 Bft) 100,00 %
05.08.2022 08:58 16,9 C 16,7 C 12,2 C 96 % 1015,4 hPa 0,0 l/m 0 min 0 min 56 W/m 6,4 km/h (2 Bft) 100,00 %
05.08.2022 09:00 16,9 C 16,7 C 12,2 C 96 % 1015,5 hPa 0,0 l/m 0 min 0 min 58 W/m 6,4 km/h (2 Bft) 100,00 %
05.08.2022 09:02 17,0 C 16,7 C 12,2 C 96 % 1015,6 hPa 0,0 l/m 0 min 0 min 52 W/m 19,3 km/h (3 Bft) 100,00 %
05.08.2022 09:04 16,9 C 16,7 C 12,2 C 96 % 1015,6 hPa 0,0 l/m 0 min 0 min 52 W/m 9,7 km/h (2 Bft) 100,00 %
05.08.2022 09:06 16,9 C 16,7 C 12,2 C 96 % 1015,6 hPa 0,0 l/m 0 min 0 min 47 W/m 12,9 km/h (3 Bft) 100,00 %
05.08.2022 09:08 17,0 C 16,7 C 12,2 C 96 % 1015,6 hPa 0,0 l/m 0 min 0 min 43 W/m 6,4 km/h (2 Bft) 100,00 %
05.08.2022 09:10 16,9 C 16,7 C 12,2 C 96 % 1015,5 hPa 0,0 l/m 0 min 0 min 52 W/m 12,9 km/h (3 Bft) 100,00 %
05.08.2022 09:12 16,9 C 16,7 C 12,2 C 96 % 1015,6 hPa 0,0 l/m 0 min 0 min 54 W/m 16,1 km/h (3 Bft) 100,00 %
05.08.2022 09:14 16,9 C 16,7 C 12,2 C 96 % 1015,6 hPa 0,0 l/m 0 min 0 min 52 W/m 6,4 km/h (2 Bft) 100,00 %
05.08.2022 09:16 16,9 C 16,7 C 12,2 C 96 % 1015,6 hPa 0,0 l/m 0 min 0 min 50 W/m 6,4 km/h (2 Bft) 97,83 %
05.08.2022 09:18 16,9 C 16,7 C 12,2 C 96 % 1015,6 hPa 0,0 l/m 0 min 0 min 49 W/m 6,4 km/h (2 Bft) 97,87 %
05.08.2022 09:20 17,0 C 16,7 C 12,2 C 96 % 1015,7 hPa 0,0 l/m 0 min 0 min 50 W/m 12,9 km/h (3 Bft) 100,00 %
05.08.2022 09:22 16,9 C 16,7 C 12,2 C 96 % 1015,7 hPa 0,0 l/m 0 min 0 min 50 W/m 6,4 km/h (2 Bft) 97,87 %
05.08.2022 09:24 16,9 C 16,7 C 12,2 C 96 % 1015,8 hPa 0,0 l/m 0 min 0 min 46 W/m 12,9 km/h (3 Bft) 97,87 %
05.08.2022 09:26 16,9 C 16,7 C 12,2 C 96 % 1015,9 hPa 0,0 l/m 0 min 0 min 44 W/m 12,9 km/h (3 Bft) 95,65 %
05.08.2022 09:28 16,9 C 16,7 C 12,2 C 95 % 1015,9 hPa 0,0 l/m 0 min 0 min 41 W/m 12,9 km/h (3 Bft) 95,74 %
05.08.2022 09:30 16,9 C 16,7 C 12,2 C 95 % 1016,1 hPa 0,0 l/m 0 min 0 min 37 W/m 9,7 km/h (2 Bft) 97,87 %
05.08.2022 09:32 16,9 C 16,7 C 12,2 C 95 % 1016,1 hPa 0,0 l/m 0 min 0 min 36 W/m 9,7 km/h (2 Bft) 93,62 %
05.08.2022 09:34 16,9 C 16,7 C 12,2 C 95 % 1016,2 hPa 0,0 l/m 0 min 0 min 37 W/m 6,4 km/h (2 Bft) 97,92 %
05.08.2022 09:36 16,9 C 16,7 C 12,2 C 95 % 1016,2 hPa 0,0 l/m 0 min 0 min 39 W/m 12,9 km/h (3 Bft) 97,87 %
05.08.2022 09:38 16,9 C 16,7 C 12,2 C 95 % 1016,2 hPa 0,0 l/m 0 min 0 min 40 W/m 9,7 km/h (2 Bft) 95,65 %
05.08.2022 09:40 16,9 C 16,7 C 12,2 C 95 % 1016,2 hPa 0,0 l/m 0 min 0 min 40 W/m 19,3 km/h (3 Bft) 93,62 %
05.08.2022 09:42 16,9 C 16,7 C 12,2 C 95 % 1016,3 hPa 0,0 l/m 0 min 0 min 40 W/m 12,9 km/h (3 Bft) 95,74 %
05.08.2022 09:44 16,9 C 16,7 C 12,2 C 95 % 1016,3 hPa 0,0 l/m 0 min 0 min 39 W/m 9,7 km/h (2 Bft) 95,74 %
05.08.2022 09:46 16,9 C 16,1 C 12,2 C 95 % 1016,3 hPa 0,0 l/m 0 min 0 min 40 W/m 6,4 km/h (2 Bft) 93,62 %
05.08.2022 09:48 16,9 C 16,7 C 12,2 C 95 % 1016,3 hPa 0,0 l/m 0 min 0 min 44 W/m 9,7 km/h (2 Bft) 93,62 %
05.08.2022 09:50 16,9 C 16,7 C 12,8 C 95 % 1016,3 hPa 0,0 l/m 0 min 0 min 44 W/m 6,4 km/h (2 Bft) 95,65 %
05.08.2022 09:52 16,8 C 16,1 C 12,8 C 94 % 1016,3 hPa 0,0 l/m 0 min 0 min 46 W/m 12,9 km/h (3 Bft) 95,74 %
05.08.2022 09:54 16,8 C 16,1 C 12,8 C 94 % 1016,3 hPa 0,0 l/m 0 min 0 min 46 W/m 9,7 km/h (2 Bft) 95,74 %
05.08.2022 09:56 16,8 C 16,1 C 12,8 C 94 % 1016,3 hPa 0,0 l/m 0 min 0 min 48 W/m 9,7 km/h (2 Bft) 95,74 %
05.08.2022 09:58 16,8 C 16,1 C 12,8 C 94 % 1016,4 hPa 0,0 l/m 0 min 0 min 50 W/m 6,4 km/h (2 Bft) 95,74 %
05.08.2022 10:00 16,8 C 16,7 C 12,8 C 94 % 1016,4 hPa 0,0 l/m 0 min 0 min 48 W/m 12,9 km/h (3 Bft) 95,74 %
05.08.2022 10:02 16,8 C 16,1 C 12,8 C 94 % 1016,5 hPa 0,0 l/m 0 min 0 min 46 W/m 12,9 km/h (3 Bft) 95,65 %
05.08.2022 10:04 16,8 C 16,1 C 12,8 C 94 % 1016,5 hPa 0,0 l/m 0 min 0 min 42 W/m 3,2 km/h (1 Bft) 93,62 %
05.08.2022 10:06 16,8 C 16,7 C 12,8 C 94 % 1016,5 hPa 0,0 l/m 0 min 0 min 38 W/m 3,2 km/h (1 Bft) 93,62 %
05.08.2022 10:08 16,8 C 16,7 C 12,8 C 94 % 1016,5 hPa 0,0 l/m 0 min 0 min 36 W/m 6,4 km/h (2 Bft) 93,62 %
05.08.2022 10:10 16,8 C 16,7 C 12,8 C 94 % 1016,6 hPa 0,0 l/m 0 min 0 min 34 W/m 12,9 km/h (3 Bft) 97,87 %
05.08.2022 10:12 16,8 C 16,7 C 12,8 C 94 % 1016,6 hPa 0,0 l/m 0 min 0 min 29 W/m 12,9 km/h (3 Bft) 95,74 %
05.08.2022 10:14 16,8 C 16,7 C 12,8 C 94 % 1016,6 hPa 0,0 l/m 0 min 0 min 23 W/m 6,4 km/h (2 Bft) 100,00 %
05.08.2022 10:16 16,8 C 16,7 C 12,8 C 94 % 1016,7 hPa 0,0 l/m 0 min 0 min 24 W/m 6,4 km/h (2 Bft) 100,00 %
05.08.2022 10:18 16,8 C 16,7 C 12,8 C 94 % 1016,7 hPa 0,0 l/m 0 min 0 min 33 W/m 3,2 km/h (1 Bft) 97,14 %
05.08.2022 10:20 16,8 C 16,7 C 12,8 C 94 % 1016,7 hPa 0,0 l/m 0 min 0 min 32 W/m 12,9 km/h (3 Bft) 100,00 %
05.08.2022 10:22 16,8 C 16,7 C 12,8 C 94 % 1016,8 hPa 0,0 l/m 0 min 0 min 35 W/m 12,9 km/h (3 Bft) 97,87 %
05.08.2022 10:24 16,8 C 16,7 C 12,8 C 94 % 1016,8 hPa 0,0 l/m 0 min 0 min 46 W/m 9,7 km/h (2 Bft) 97,87 %
05.08.2022 10:26 16,8 C 16,7 C 12,8 C 94 % 1016,7 hPa 0,0 l/m 0 min 0 min 47 W/m 9,7 km/h (2 Bft) 94,29 %
05.08.2022 10:28 16,8 C 16,7 C 12,8 C 94 % 1016,7 hPa 0,0 l/m 0 min 0 min 49 W/m 9,7 km/h (2 Bft) 100,00 %
05.08.2022 10:30 16,8 C 16,7 C 13,3 C 94 % 1016,7 hPa 0,0 l/m 0 min 0 min 54 W/m 6,4 km/h (2 Bft) 100,00 %
05.08.2022 10:32 16,9 C 16,7 C 13,3 C 94 % 1016,7 hPa 0,0 l/m 0 min 0 min 57 W/m 9,7 km/h (2 Bft) 97,87 %
05.08.2022 10:34 16,9 C 16,7 C 13,3 C 94 % 1016,8 hPa 0,0 l/m 0 min 0 min 70 W/m 3,2 km/h (1 Bft) 97,87 %
05.08.2022 10:36 16,9 C 16,7 C 13,3 C 94 % 1016,7 hPa 0,0 l/m 0 min 0 min 71 W/m 3,2 km/h (1 Bft) 98,28 %
05.08.2022 10:38 17,0 C 16,7 C 13,3 C 94 % 1016,8 hPa 0,0 l/m 0 min 0 min 71 W/m 6,4 km/h (2 Bft) 97,22 %
05.08.2022 10:40 17,0 C 16,7 C 13,3 C 94 % 1016,9 hPa 0,0 l/m 0 min 0 min 70 W/m 6,4 km/h (2 Bft) 97,83 %
05.08.2022 10:42 17,0 C 16,7 C 13,3 C 94 % 1016,9 hPa 0,0 l/m 0 min 0 min 74 W/m 6,4 km/h (2 Bft) 97,87 %
05.08.2022 10:44 17,0 C 16,7 C 13,3 C 93 % 1016,9 hPa 0,0 l/m 0 min 0 min 75 W/m 9,7 km/h (2 Bft) 97,87 %
05.08.2022 10:46 17,1 C 16,7 C 13,3 C 93 % 1016,8 hPa 0,0 l/m 0 min 0 min 75 W/m 12,9 km/h (3 Bft) 97,56 %
05.08.2022 10:48 17,1 C 16,7 C 13,3 C 93 % 1016,8 hPa 0,0 l/m 0 min 0 min 70 W/m 6,4 km/h (2 Bft) 98,11 %
05.08.2022 10:50 17,1 C 17,2 C 13,3 C 93 % 1016,8 hPa 0,0 l/m 0 min 0 min 87 W/m 6,4 km/h (2 Bft) 97,87 %
05.08.2022 10:52 17,1 C 17,2 C 13,3 C 93 % 1016,8 hPa 0,0 l/m 0 min 0 min 100 W/m 6,4 km/h (2 Bft) 95,65 %
05.08.2022 10:54 17,1 C 17,2 C 13,3 C 93 % 1016,8 hPa 0,0 l/m 0 min 0 min 97 W/m 6,4 km/h (2 Bft) 97,87 %
05.08.2022 10:56 17,1 C 17,2 C 13,3 C 93 % 1016,9 hPa 0,0 l/m 0 min 0 min 88 W/m 6,4 km/h (2 Bft) 97,87 %
05.08.2022 10:58 17,2 C 17,2 C 13,9 C 93 % 1017,0 hPa 0,0 l/m 0 min 0 min 86 W/m 3,2 km/h (1 Bft) 97,87 %
05.08.2022 11:00 17,2 C 17,2 C 13,9 C 93 % 1017,0 hPa 0,0 l/m 0 min 0 min 95 W/m 6,4 km/h (2 Bft) 95,92 %
05.08.2022 11:02 17,2 C 17,2 C 13,9 C 93 % 1017,1 hPa 0,0 l/m 0 min 0 min 99 W/m 3,2 km/h (1 Bft) 97,83 %
05.08.2022 11:04 17,2 C 17,2 C 13,9 C 92 % 1017,1 hPa 0,0 l/m 0 min 0 min 151 W/m 6,4 km/h (2 Bft) 97,87 %
05.08.2022 11:06 17,3 C 17,8 C 13,9 C 92 % 1017,1 hPa 0,0 l/m 0 min 0 min 179 W/m 9,7 km/h (2 Bft) 98,31 %
05.08.2022 11:08 17,3 C 17,8 C 13,9 C 92 % 1017,1 hPa 0,0 l/m 0 min 0 min 147 W/m 6,4 km/h (2 Bft) 97,14 %
05.08.2022 11:10 17,3 C 17,8 C 13,9 C 92 % 1017,1 hPa 0,0 l/m 0 min 0 min 100 W/m 6,4 km/h (2 Bft) 97,87 %
05.08.2022 11:12 17,4 C 17,8 C 13,9 C 92 % 1017,2 hPa 0,0 l/m 0 min 0 min 80 W/m 6,4 km/h (2 Bft) 97,87 %
05.08.2022 11:14 17,4 C 17,8 C 13,9 C 92 % 1017,3 hPa 0,0 l/m 0 min 0 min 80 W/m 9,7 km/h (2 Bft) 97,87 %
05.08.2022 11:16 17,5 C 17,8 C 13,9 C 92 % 1017,3 hPa 0,0 l/m 0 min 0 min 89 W/m 12,9 km/h (3 Bft) 97,83 %
05.08.2022 11:18 17,5 C 17,8 C 13,9 C 91 % 1017,3 hPa 0,0 l/m 0 min 0 min 93 W/m 12,9 km/h (3 Bft) 97,87 %
05.08.2022 11:20 17,5 C 17,8 C 13,9 C 91 % 1017,4 hPa 0,0 l/m 0 min 0 min 94 W/m 6,4 km/h (2 Bft) 97,87 %
05.08.2022 11:22 17,6 C 17,2 C 13,9 C 91 % 1017,4 hPa 0,0 l/m 0 min 0 min 121 W/m 12,9 km/h (3 Bft) 97,87 %
05.08.2022 11:24 17,6 C 17,8 C 13,9 C 91 % 1017,4 hPa 0,0 l/m 0 min 0 min 132 W/m 3,2 km/h (1 Bft) 97,87 %
05.08.2022 11:26 17,6 C 17,8 C 13,9 C 91 % 1017,4 hPa 0,0 l/m 0 min 0 min 154 W/m 6,4 km/h (2 Bft) 100,00 %
05.08.2022 11:28 17,7 C 17,8 C 14,4 C 91 % 1017,4 hPa 0,0 l/m 0 min 0 min 159 W/m 9,7 km/h (2 Bft) 100,00 %
05.08.2022 11:30 17,7 C 17,8 C 13,9 C 91 % 1017,5 hPa 0,0 l/m 0 min 0 min 157 W/m 19,3 km/h (3 Bft) 100,00 %
05.08.2022 11:32 17,7 C 17,8 C 14,4 C 90 % 1017,5 hPa 0,0 l/m 0 min 0 min 161 W/m 9,7 km/h (2 Bft) 97,87 %
05.08.2022 11:34 17,7 C 17,8 C 14,4 C 90 % 1017,6 hPa 0,0 l/m 0 min 0 min 162 W/m 6,4 km/h (2 Bft) 97,87 %
05.08.2022 11:36 17,8 C 17,8 C 14,4 C 90 % 1017,7 hPa 0,0 l/m 0 min 0 min 144 W/m 9,7 km/h (2 Bft) 97,87 %
05.08.2022 11:38 17,8 C 17,8 C 14,4 C 90 % 1017,7 hPa 0,0 l/m 0 min 0 min 150 W/m 6,4 km/h (2 Bft) 97,83 %
05.08.2022 11:40 17,8 C 17,8 C 14,4 C 90 % 1017,7 hPa 0,0 l/m 0 min 0 min 173 W/m 12,9 km/h (3 Bft) 97,87 %
05.08.2022 11:42 17,8 C 17,8 C 14,4 C 90 % 1017,7 hPa 0,0 l/m 0 min 0 min 195 W/m 12,9 km/h (3 Bft) 97,87 %
05.08.2022 11:44 17,9 C 18,3 C 14,4 C 89 % 1017,7 hPa 0,0 l/m 0 min 0 min 214 W/m 9,7 km/h (2 Bft) 97,87 %
05.08.2022 11:46 17,9 C 18,3 C 14,4 C 89 % 1017,8 hPa 0,0 l/m 0 min 0 min 232 W/m 9,7 km/h (2 Bft) 95,74 %
05.08.2022 11:48 18,0 C 18,9 C 15,0 C 89 % 1017,8 hPa 0,0 l/m 0 min 0 min 277 W/m 6,4 km/h (2 Bft) 97,87 %
05.08.2022 11:50 18,1 C 18,9 C 15,0 C 89 % 1017,8 hPa 0,0 l/m 0 min 0 min 335 W/m 6,4 km/h (2 Bft) 97,87 %
05.08.2022 11:52 18,2 C 18,9 C 15,0 C 89 % 1017,8 hPa 0,0 l/m 0 min 0 min 357 W/m 16,1 km/h (3 Bft) 95,65 %
05.08.2022 11:54 18,2 C 18,9 C 15,6 C 88 % 1017,9 hPa 0,0 l/m 2 min 0 min 380 W/m 16,1 km/h (3 Bft) 97,87 %
05.08.2022 11:56 18,3 C 19,4 C 15,6 C 88 % 1017,9 hPa 0,0 l/m 2 min 0 min 486 W/m 16,1 km/h (3 Bft) 97,87 %
05.08.2022 11:58 18,4 C 20,0 C 15,6 C 88 % 1017,9 hPa 0,0 l/m 2 min 0 min 489 W/m 12,9 km/h (3 Bft) 95,74 %
05.08.2022 12:00 18,5 C 20,0 C 16,1 C 88 % 1018,0 hPa 0,0 l/m 2 min 0 min 470 W/m 16,1 km/h (3 Bft) 97,87 %
05.08.2022 12:02 18,6 C 20,0 C 16,1 C 87 % 1017,9 hPa 0,0 l/m 2 min 0 min 440 W/m 6,4 km/h (2 Bft) 95,74 %
05.08.2022 12:04 18,7 C 20,6 C 16,7 C 88 % 1018,0 hPa 0,0 l/m 2 min 0 min 619 W/m 9,7 km/h (2 Bft) 100,00 %
05.08.2022 12:07 18,9 C 20,6 C 16,7 C 87 % 1018,0 hPa 0,0 l/m 0 min 0 min 341 W/m 9,7 km/h (2 Bft) 100,00 %
05.08.2022 12:10 19,1 C 20,0 C 16,7 C 87 % 1018,1 hPa 0,0 l/m 3 min 0 min 510 W/m 19,3 km/h (3 Bft) 100,00 %
05.08.2022 12:12 19,1 C 20,0 C 16,7 C 86 % 1018,1 hPa 0,0 l/m 2 min 0 min 516 W/m 22,5 km/h (4 Bft) 97,87 %
05.08.2022 12:14 19,2 C 20,6 C 17,2 C 86 % 1018,1 hPa 0,0 l/m 2 min 0 min 388 W/m 12,9 km/h (3 Bft) 97,83 %
05.08.2022 12:16 19,3 C 21,7 C 18,3 C 86 % 1018,2 hPa 0,0 l/m 2 min 0 min 468 W/m 19,3 km/h (3 Bft) 97,87 %
05.08.2022 12:18 19,4 C 21,7 C 17,8 C 86 % 1018,2 hPa 0,0 l/m 2 min 0 min 664 W/m 12,9 km/h (3 Bft) 97,87 %
05.08.2022 12:20 19,6 C 21,1 C 17,8 C 85 % 1018,2 hPa 0,0 l/m 0 min 0 min 352 W/m 9,7 km/h (2 Bft) 97,87 %
05.08.2022 12:22 19,6 C 21,7 C 17,8 C 85 % 1018,2 hPa 0,0 l/m 2 min 0 min 384 W/m 19,3 km/h (3 Bft) 95,74 %
05.08.2022 12:24 19,7 C 21,7 C 17,8 C 83 % 1018,3 hPa 0,0 l/m 2 min 0 min 508 W/m 9,7 km/h (2 Bft) 97,87 %
05.08.2022 12:26 19,7 C 21,7 C 17,8 C 83 % 1018,3 hPa 0,0 l/m 2 min 0 min 438 W/m 9,7 km/h (2 Bft) 97,83 %
05.08.2022 12:28 19,8 C 21,1 C 17,2 C 82 % 1018,2 hPa 0,0 l/m 2 min 0 min 406 W/m 22,5 km/h (4 Bft) 97,87 %
05.08.2022 12:30 19,8 C 20,6 C 17,2 C 82 % 1018,3 hPa 0,0 l/m 0 min 0 min 361 W/m 6,4 km/h (2 Bft) 97,87 %
05.08.2022 12:32 19,8 C 20,6 C 17,2 C 82 % 1018,3 hPa 0,0 l/m 2 min 0 min 401 W/m 9,7 km/h (2 Bft) 97,87 %
05.08.2022 12:34 19,9 C 20,6 C 17,2 C 82 % 1018,3 hPa 0,0 l/m 0 min 0 min 373 W/m 9,7 km/h (2 Bft) 97,87 %
05.08.2022 12:36 19,9 C 21,1 C 17,2 C 82 % 1018,3 hPa 0,0 l/m 2 min 0 min 436 W/m 12,9 km/h (3 Bft) 97,87 %
05.08.2022 12:38 20,1 C 21,7 C 17,8 C 83 % 1018,3 hPa 0,0 l/m 2 min 0 min 497 W/m 9,7 km/h (2 Bft) 97,83 %
05.08.2022 12:40 20,1 C 21,7 C 17,8 C 82 % 1018,3 hPa 0,0 l/m 0 min 0 min 351 W/m 12,9 km/h (3 Bft) 95,74 %
05.08.2022 12:42 20,2 C 21,1 C 17,2 C 81 % 1018,3 hPa 0,0 l/m 2 min 0 min 392 W/m 12,9 km/h (3 Bft) 97,87 %
05.08.2022 12:44 20,2 C 21,1 C 17,8 C 81 % 1018,3 hPa 0,0 l/m 2 min 0 min 396 W/m 6,4 km/h (2 Bft) 97,87 %
05.08.2022 12:46 20,3 C 21,7 C 17,8 C 82 % 1018,3 hPa 0,0 l/m 2 min 0 min 416 W/m 3,2 km/h (1 Bft) 95,74 %
05.08.2022 12:48 20,3 C 21,7 C 17,8 C 81 % 1018,2 hPa 0,0 l/m 2 min 0 min 424 W/m 9,7 km/h (2 Bft) 97,87 %
05.08.2022 12:50 20,3 C 21,7 C 17,8 C 81 % 1018,3 hPa 0,0 l/m 0 min 0 min 366 W/m 9,7 km/h (2 Bft) 97,87 %
05.08.2022 12:52 20,3 C 21,7 C 17,2 C 81 % 1018,3 hPa 0,0 l/m 0 min 0 min 372 W/m 9,7 km/h (2 Bft) 97,87 %
05.08.2022 12:54 20,4 C 21,7 C 17,2 C 81 % 1018,4 hPa 0,0 l/m 0 min 0 min 319 W/m 12,9 km/h (3 Bft) 97,87 %
05.08.2022 12:56 20,4 C 21,7 C 17,2 C 81 % 1018,3 hPa 0,0 l/m 0 min 0 min 362 W/m 12,9 km/h (3 Bft) 100,00 %
05.08.2022 12:58 20,4 C 21,7 C 17,8 C 81 % 1018,4 hPa 0,0 l/m 2 min 0 min 415 W/m 9,7 km/h (2 Bft) 97,87 %
05.08.2022 13:00 20,6 C 22,2 C 17,8 C 81 % 1018,4 hPa 0,0 l/m 2 min 0 min 479 W/m 12,9 km/h (3 Bft) 100,00 %
05.08.2022 13:02 20,6 C 22,8 C 18,3 C 80 % 1018,4 hPa 0,0 l/m 2 min 0 min 485 W/m 12,9 km/h (3 Bft) 100,00 %
05.08.2022 13:04 20,8 C 22,8 C 18,3 C 81 % 1018,4 hPa 0,0 l/m 2 min 0 min 486 W/m 12,9 km/h (3 Bft) 100,00 %
05.08.2022 13:06 20,9 C 22,8 C 18,3 C 80 % 1018,4 hPa 0,0 l/m 2 min 0 min 490 W/m 16,1 km/h (3 Bft) 100,00 %
05.08.2022 13:08 21,1 C 22,8 C 18,3 C 79 % 1018,5 hPa 0,0 l/m 2 min 0 min 671 W/m 16,1 km/h (3 Bft) 97,87 %
05.08.2022 13:10 21,2 C 22,8 C 18,3 C 79 % 1018,4 hPa 0,0 l/m 2 min 0 min 506 W/m 9,7 km/h (2 Bft) 100,00 %
05.08.2022 13:12 21,2 C 22,8 C 17,8 C 78 % 1018,4 hPa 0,0 l/m 0 min 0 min 370 W/m 12,9 km/h (3 Bft) 100,00 %
05.08.2022 13:14 21,3 C 22,8 C 17,8 C 79 % 1018,4 hPa 0,0 l/m 0 min 0 min 355 W/m 6,4 km/h (2 Bft) 100,00 %
05.08.2022 13:16 21,3 C 22,2 C 17,8 C 78 % 1018,5 hPa 0,0 l/m 0 min 0 min 328 W/m 12,9 km/h (3 Bft) 100,00 %
05.08.2022 13:18 21,3 C 22,2 C 17,8 C 77 % 1018,4 hPa 0,0 l/m 0 min 0 min 313 W/m 16,1 km/h (3 Bft) 100,00 %
05.08.2022 13:20 21,3 C 21,7 C 17,8 C 77 % 1018,5 hPa 0,0 l/m 0 min 0 min 267 W/m 12,9 km/h (3 Bft) 97,87 %
05.08.2022 13:22 21,3 C 21,7 C 17,8 C 77 % 1018,6 hPa 0,0 l/m 0 min 0 min 211 W/m 9,7 km/h (2 Bft) 100,00 %
05.08.2022 13:24 21,3 C 21,7 C 17,2 C 77 % 1018,6 hPa 0,0 l/m 0 min 0 min 232 W/m 16,1 km/h (3 Bft) 100,00 %
05.08.2022 13:26 21,2 C 21,7 C 17,2 C 77 % 1018,5 hPa 0,0 l/m 0 min 0 min 291 W/m 12,9 km/h (3 Bft) 100,00 %
05.08.2022 13:28 21,3 C 22,2 C 17,8 C 77 % 1018,6 hPa 0,0 l/m 2 min 0 min 442 W/m 16,1 km/h (3 Bft) 95,74 %
05.08.2022 13:30 21,3 C 22,2 C 17,8 C 76 % 1018,6 hPa 0,0 l/m 2 min 0 min 602 W/m 9,7 km/h (2 Bft) 100,00 %
05.08.2022 13:32 21,4 C 22,8 C 17,8 C 76 % 1018,6 hPa 0,0 l/m 2 min 0 min 722 W/m 6,4 km/h (2 Bft) 97,87 %
05.08.2022 13:34 21,6 C 23,9 C 17,8 C 76 % 1018,6 hPa 0,0 l/m 2 min 0 min 915 W/m 9,7 km/h (2 Bft) 97,87 %
05.08.2022 13:36 21,7 C 23,9 C 17,8 C 76 % 1018,6 hPa 0,0 l/m 2 min 0 min 914 W/m 12,9 km/h (3 Bft) 93,62 %
05.08.2022 13:38 21,8 C 23,3 C 17,8 C 76 % 1018,5 hPa 0,0 l/m 2 min 0 min 914 W/m 6,4 km/h (2 Bft) 95,65 %
05.08.2022 13:40 21,8 C 22,8 C 17,2 C 75 % 1018,6 hPa 0,0 l/m 0 min 0 min 382 W/m 12,9 km/h (3 Bft) 100,00 %
05.08.2022 13:42 21,8 C 23,3 C 17,2 C 75 % 1018,6 hPa 0,0 l/m 0 min 0 min 200 W/m 9,7 km/h (2 Bft) 97,87 %
05.08.2022 13:44 21,8 C 23,3 C 17,8 C 75 % 1018,6 hPa 0,0 l/m 2 min 0 min 762 W/m 12,9 km/h (3 Bft) 97,87 %
05.08.2022 13:46 21,8 C 23,3 C 17,8 C 75 % 1018,6 hPa 0,0 l/m 2 min 0 min 1130 W/m 16,1 km/h (3 Bft) 93,62 %
05.08.2022 13:48 21,9 C 23,3 C 17,8 C 76 % 1018,6 hPa 0,0 l/m 2 min 0 min 1092 W/m 19,3 km/h (3 Bft) 97,92 %
05.08.2022 13:50 22,0 C 23,3 C 17,8 C 75 % 1018,6 hPa 0,0 l/m 0 min 0 min 313 W/m 9,7 km/h (2 Bft) 95,65 %
05.08.2022 13:52 22,0 C 23,3 C 18,3 C 75 % 1018,7 hPa 0,0 l/m 0 min 0 min 311 W/m 12,9 km/h (3 Bft) 95,74 %
05.08.2022 13:54 22,1 C 23,3 C 17,8 C 74 % 1018,7 hPa 0,0 l/m 2 min 0 min 401 W/m 6,4 km/h (2 Bft) 95,74 %
05.08.2022 13:56 22,1 C 23,3 C 17,8 C 74 % 1018,7 hPa 0,0 l/m 0 min 0 min 346 W/m 9,7 km/h (2 Bft) 95,74 %
05.08.2022 13:58 22,1 C 23,3 C 17,8 C 75 % 1018,7 hPa 0,0 l/m 0 min 0 min 338 W/m 3,2 km/h (1 Bft) 95,74 %
05.08.2022 14:00 22,1 C 23,9 C 18,3 C 75 % 1018,7 hPa 0,0 l/m 0 min 0 min 345 W/m 9,7 km/h (2 Bft) 95,74 %
05.08.2022 14:02 22,2 C 23,9 C 18,3 C 75 % 1018,7 hPa 0,0 l/m 0 min 0 min 259 W/m 12,9 km/h (3 Bft) 95,65 %
05.08.2022 14:04 22,2 C 23,3 C 18,3 C 74 % 1018,7 hPa 0,0 l/m 0 min 0 min 219 W/m 16,1 km/h (3 Bft) 95,74 %
05.08.2022 14:06 22,2 C 22,8 C 17,8 C 74 % 1018,7 hPa 0,0 l/m 0 min 0 min 245 W/m 12,9 km/h (3 Bft) 95,74 %
05.08.2022 14:08 22,2 C 23,3 C 17,8 C 73 % 1018,6 hPa 0,0 l/m 0 min 0 min 269 W/m 19,3 km/h (3 Bft) 95,74 %
05.08.2022 14:10 22,2 C 23,9 C 18,3 C 74 % 1018,7 hPa 0,0 l/m 0 min 0 min 269 W/m 16,1 km/h (3 Bft) 94,29 %
05.08.2022 14:12 22,3 C 23,9 C 18,3 C 73 % 1018,6 hPa 0,0 l/m 2 min 0 min 445 W/m 9,7 km/h (2 Bft) 97,87 %
05.08.2022 14:14 22,3 C 24,4 C 18,3 C 73 % 1018,7 hPa 0,0 l/m 0 min 0 min 311 W/m 22,5 km/h (4 Bft) 97,87 %
05.08.2022 14:16 22,4 C 24,4 C 18,3 C 72 % 1018,6 hPa 0,0 l/m 0 min 0 min 311 W/m 9,7 km/h (2 Bft) 97,87 %
05.08.2022 14:18 22,4 C 25,0 C 18,3 C 71 % 1018,5 hPa 0,0 l/m 2 min 0 min 944 W/m 6,4 km/h (2 Bft) 96,15 %
05.08.2022 14:20 22,5 C 25,0 C 18,3 C 71 % 1018,5 hPa 0,0 l/m 2 min 0 min 945 W/m 12,9 km/h (3 Bft) 97,92 %
05.08.2022 14:22 22,6 C 26,1 C 18,3 C 71 % 1018,6 hPa 0,0 l/m 2 min 0 min 951 W/m 12,9 km/h (3 Bft) 100,00 %
05.08.2022 14:24 22,7 C 26,1 C 18,3 C 70 % 1018,5 hPa 0,0 l/m 2 min 0 min 976 W/m 16,1 km/h (3 Bft) 97,87 %
05.08.2022 14:26 22,9 C 26,7 C 18,9 C 71 % 1018,6 hPa 0,0 l/m 2 min 0 min 1060 W/m 12,9 km/h (3 Bft) 97,87 %
05.08.2022 14:28 23,2 C 26,7 C 18,9 C 71 % 1018,6 hPa 0,0 l/m 2 min 0 min 849 W/m 9,7 km/h (2 Bft) 97,87 %
05.08.2022 14:30 23,2 C 26,1 C 18,9 C 70 % 1018,6 hPa 0,0 l/m 2 min 0 min 468 W/m 12,9 km/h (3 Bft) 97,87 %
05.08.2022 14:32 23,3 C 25,0 C 18,9 C 69 % 1018,7 hPa 0,0 l/m 0 min 0 min 227 W/m 6,4 km/h (2 Bft) 97,92 %
05.08.2022 14:34 23,2 C 23,9 C 18,3 C 69 % 1018,7 hPa 0,0 l/m 0 min 0 min 189 W/m 12,9 km/h (3 Bft) 100,00 %
05.08.2022 14:36 23,0 C 23,3 C 18,3 C 69 % 1018,7 hPa 0,0 l/m 0 min 0 min 175 W/m 6,4 km/h (2 Bft) 97,87 %
05.08.2022 14:38 22,9 C 22,8 C 18,3 C 70 % 1018,7 hPa 0,0 l/m 0 min 0 min 173 W/m 12,9 km/h (3 Bft) 97,83 %
05.08.2022 14:40 22,8 C 22,8 C 18,3 C 71 % 1018,7 hPa 0,0 l/m 0 min 0 min 182 W/m 9,7 km/h (2 Bft) 97,87 %
05.08.2022 14:42 22,8 C 22,8 C 18,3 C 70 % 1018,8 hPa 0,0 l/m 0 min 0 min 180 W/m 6,4 km/h (2 Bft) 97,87 %
05.08.2022 14:44 22,7 C 22,8 C 18,3 C 71 % 1018,9 hPa 0,0 l/m 0 min 0 min 148 W/m 6,4 km/h (2 Bft) 95,74 %
05.08.2022 14:46 22,6 C 22,2 C 18,3 C 70 % 1018,9 hPa 0,0 l/m 0 min 0 min 112 W/m 9,7 km/h (2 Bft) 93,62 %
05.08.2022 14:48 22,6 C 22,2 C 17,8 C 70 % 1019,0 hPa 0,0 l/m 0 min 2 min 62 W/m 16,1 km/h (3 Bft) 97,87 %
05.08.2022 14:50 22,4 C 21,7 C 17,8 C 70 % 1019,1 hPa 0,0 l/m 0 min 0 min 45 W/m 9,7 km/h (2 Bft) 95,65 %
05.08.2022 14:52 22,3 C 21,1 C 17,2 C 71 % 1019,1 hPa 0,0 l/m 0 min 2 min 32 W/m 9,7 km/h (2 Bft) 97,87 %
05.08.2022 14:54 22,3 C 21,1 C 17,2 C 72 % 1019,2 hPa 0,0 l/m 0 min 2 min 32 W/m 16,1 km/h (3 Bft) 97,87 %
05.08.2022 14:56 22,2 C 20,6 C 17,2 C 73 % 1019,2 hPa 0,0 l/m 0 min 2 min 42 W/m 16,1 km/h (3 Bft) 97,87 %
05.08.2022 14:58 22,1 C 20,6 C 16,7 C 75 % 1019,2 hPa 0,0 l/m 0 min 2 min 59 W/m 12,9 km/h (3 Bft) 93,62 %
05.08.2022 15:00 22,0 C 20,0 C 16,7 C 75 % 1019,3 hPa 0,0 l/m 0 min 2 min 66 W/m 12,9 km/h (3 Bft) 97,87 %
05.08.2022 15:02 21,7 C 20,0 C 16,7 C 77 % 1019,3 hPa 0,0 l/m 0 min 0 min 61 W/m 9,7 km/h (2 Bft) 97,87 %
05.08.2022 15:04 21,5 C 20,0 C 16,1 C 78 % 1019,4 hPa 0,0 l/m 0 min 2 min 65 W/m 9,7 km/h (2 Bft) 97,87 %
05.08.2022 15:06 21,4 C 20,0 C 16,1 C 78 % 1019,4 hPa 0,0 l/m 0 min 0 min 88 W/m 19,3 km/h (3 Bft) 95,74 %
05.08.2022 15:08 21,3 C 20,0 C 16,1 C 79 % 1019,4 hPa 0,0 l/m 0 min 0 min 105 W/m 9,7 km/h (2 Bft) 97,87 %
05.08.2022 15:10 21,1 C 20,0 C 16,7 C 79 % 1019,4 hPa 0,0 l/m 0 min 0 min 110 W/m 6,4 km/h (2 Bft) 97,87 %
05.08.2022 15:12 21,1 C 20,0 C 16,7 C 80 % 1019,5 hPa 0,0 l/m 0 min 0 min 110 W/m 9,7 km/h (2 Bft) 97,87 %
05.08.2022 15:14 21,0 C 20,0 C 16,7 C 80 % 1019,5 hPa 0,0 l/m 0 min 0 min 119 W/m 9,7 km/h (2 Bft) 97,83 %
05.08.2022 15:16 20,9 C 20,6 C 16,7 C 80 % 1019,5 hPa 0,0 l/m 0 min 0 min 134 W/m 9,7 km/h (2 Bft) 93,62 %
05.08.2022 15:18 20,9 C 20,6 C 16,7 C 79 % 1019,5 hPa 0,0 l/m 0 min 0 min 149 W/m 12,9 km/h (3 Bft) 97,87 %
05.08.2022 15:20 20,8 C 20,6 C 16,7 C 79 % 1019,5 hPa 0,0 l/m 0 min 0 min 156 W/m 12,9 km/h (3 Bft) 97,87 %
05.08.2022 15:22 20,8 C 20,6 C 16,7 C 79 % 1019,5 hPa 0,0 l/m 0 min 0 min 155 W/m 12,9 km/h (3 Bft) 97,87 %
05.08.2022 15:24 20,8 C 20,6 C 16,7 C 79 % 1019,6 hPa 0,0 l/m 0 min 0 min 166 W/m 12,9 km/h (3 Bft) 97,87 %
05.08.2022 15:26 20,8 C 20,6 C 16,7 C 79 % 1019,5 hPa 0,0 l/m 0 min 0 min 191 W/m 9,7 km/h (2 Bft) 97,83 %
05.08.2022 15:28 20,9 C 20,6 C 17,2 C 79 % 1019,6 hPa 0,0 l/m 0 min 0 min 193 W/m 12,9 km/h (3 Bft) 97,87 %
05.08.2022 15:30 20,9 C 21,1 C 17,2 C 79 % 1019,5 hPa 0,0 l/m 0 min 0 min 195 W/m 6,4 km/h (2 Bft) 100,00 %
05.08.2022 15:32 20,9 C 21,1 C 17,2 C 79 % 1019,6 hPa 0,0 l/m 0 min 0 min 207 W/m 16,1 km/h (3 Bft) 100,00 %
05.08.2022 15:34 20,9 C 21,1 C 17,2 C 78 % 1019,6 hPa 0,0 l/m 0 min 0 min 208 W/m 9,7 km/h (2 Bft) 100,00 %
05.08.2022 15:36 21,0 C 21,1 C 17,2 C 79 % 1019,6 hPa 0,0 l/m 0 min 0 min 194 W/m 6,4 km/h (2 Bft) 97,83 %
05.08.2022 15:38 21,1 C 21,1 C 17,2 C 79 % 1019,6 hPa 0,0 l/m 0 min 0 min 194 W/m 9,7 km/h (2 Bft) 95,74 %
05.08.2022 15:40 21,1 C 21,7 C 17,2 C 79 % 1019,7 hPa 0,0 l/m 0 min 0 min 270 W/m 6,4 km/h (2 Bft) 97,87 %
05.08.2022 15:42 21,2 C 21,7 C 17,2 C 79 % 1019,7 hPa 0,0 l/m 0 min 0 min 272 W/m 9,7 km/h (2 Bft) 97,87 %
05.08.2022 15:44 21,3 C 21,7 C 17,2 C 77 % 1019,7 hPa 0,0 l/m 0 min 0 min 292 W/m 6,4 km/h (2 Bft) 97,87 %
05.08.2022 15:46 21,3 C 22,2 C 17,8 C 77 % 1019,7 hPa 0,0 l/m 0 min 0 min 328 W/m 12,9 km/h (3 Bft) 97,87 %
05.08.2022 15:48 21,4 C 22,2 C 17,8 C 76 % 1019,7 hPa 0,0 l/m 0 min 0 min 344 W/m 12,9 km/h (3 Bft) 97,83 %
05.08.2022 15:50 21,5 C 23,3 C 17,8 C 76 % 1019,7 hPa 0,0 l/m 2 min 0 min 364 W/m 6,4 km/h (2 Bft) 97,87 %
05.08.2022 15:52 21,6 C 23,9 C 17,8 C 76 % 1019,7 hPa 0,0 l/m 2 min 0 min 596 W/m 19,3 km/h (3 Bft) 95,74 %
05.08.2022 15:54 21,8 C 25,0 C 18,3 C 75 % 1019,7 hPa 0,0 l/m 2 min 0 min 757 W/m 6,4 km/h (2 Bft) 97,87 %
05.08.2022 15:56 21,9 C 26,1 C 18,3 C 74 % 1019,7 hPa 0,0 l/m 2 min 0 min 853 W/m 9,7 km/h (2 Bft) 97,87 %
05.08.2022 15:58 22,1 C 26,7 C 18,3 C 74 % 1019,7 hPa 0,0 l/m 2 min 0 min 840 W/m 6,4 km/h (2 Bft) 97,87 %
05.08.2022 16:00 22,3 C 27,8 C 18,9 C 73 % 1019,7 hPa 0,0 l/m 2 min 0 min 829 W/m 9,7 km/h (2 Bft) 95,65 %
05.08.2022 16:02 22,6 C 27,8 C 18,9 C 71 % 1019,6 hPa 0,0 l/m 2 min 0 min 839 W/m 12,9 km/h (3 Bft) 97,92 %
05.08.2022 16:04 22,7 C 26,7 C 18,9 C 70 % 1019,7 hPa 0,0 l/m 2 min 0 min 479 W/m 9,7 km/h (2 Bft) 97,87 %
05.08.2022 16:06 22,8 C 25,6 C 18,3 C 69 % 1019,7 hPa 0,0 l/m 0 min 0 min 250 W/m 12,9 km/h (3 Bft) 97,87 %
05.08.2022 16:08 22,8 C 25,0 C 18,3 C 68 % 1019,7 hPa 0,0 l/m 0 min 0 min 259 W/m 19,3 km/h (3 Bft) 97,87 %
05.08.2022 16:10 22,8 C 23,9 C 18,3 C 66 % 1019,6 hPa 0,0 l/m 0 min 0 min 279 W/m 19,3 km/h (3 Bft) 100,00 %
05.08.2022 16:12 22,8 C 23,9 C 18,3 C 67 % 1019,7 hPa 0,0 l/m 0 min 0 min 326 W/m 9,7 km/h (2 Bft) 100,00 %
05.08.2022 16:14 22,8 C 25,0 C 18,9 C 66 % 1019,7 hPa 0,0 l/m 0 min 0 min 323 W/m 9,7 km/h (2 Bft) 100,00 %
05.08.2022 16:16 22,9 C 24,4 C 18,9 C 64 % 1019,7 hPa 0,0 l/m 0 min 0 min 305 W/m 9,7 km/h (2 Bft) 100,00 %
05.08.2022 16:18 22,9 C 23,9 C 18,9 C 63 % 1019,7 hPa 0,0 l/m 0 min 0 min 274 W/m 19,3 km/h (3 Bft) 100,00 %
05.08.2022 16:20 22,8 C 23,9 C 18,9 C 63 % 1019,7 hPa 0,0 l/m 0 min 0 min 275 W/m 12,9 km/h (3 Bft) 100,00 %
05.08.2022 16:22 22,8 C 23,9 C 18,9 C 64 % 1019,7 hPa 0,0 l/m 0 min 0 min 305 W/m 19,3 km/h (3 Bft) 100,00 %
05.08.2022 16:24 22,9 C 23,3 C 18,9 C 65 % 1019,7 hPa 0,0 l/m 0 min 0 min 241 W/m 9,7 km/h (2 Bft) 100,00 %
05.08.2022 16:26 22,8 C 23,3 C 18,3 C 65 % 1019,7 hPa 0,0 l/m 0 min 0 min 192 W/m 12,9 km/h (3 Bft) 100,00 %
05.08.2022 16:28 22,8 C 23,3 C 18,3 C 64 % 1019,7 hPa 0,0 l/m 0 min 0 min 177 W/m 9,7 km/h (2 Bft) 100,00 %
05.08.2022 16:30 22,8 C 22,8 C 18,3 C 64 % 1019,8 hPa 0,0 l/m 0 min 0 min 183 W/m 16,1 km/h (3 Bft) 100,00 %
05.08.2022 16:32 22,7 C 22,8 C 18,3 C 63 % 1019,8 hPa 0,0 l/m 0 min 0 min 189 W/m 9,7 km/h (2 Bft) 100,00 %
05.08.2022 16:34 22,7 C 22,8 C 18,3 C 64 % 1019,8 hPa 0,0 l/m 0 min 0 min 197 W/m 6,4 km/h (2 Bft) 97,87 %
05.08.2022 16:36 22,7 C 22,8 C 18,3 C 63 % 1019,7 hPa 0,0 l/m 0 min 0 min 221 W/m 12,9 km/h (3 Bft) 100,00 %
05.08.2022 16:38 22,7 C 22,8 C 18,3 C 63 % 1019,7 hPa 0,0 l/m 0 min 0 min 276 W/m 12,9 km/h (3 Bft) 100,00 %
05.08.2022 16:40 22,7 C 23,3 C 18,3 C 63 % 1019,7 hPa 0,0 l/m 0 min 0 min 284 W/m 6,4 km/h (2 Bft) 100,00 %
05.08.2022 16:42 22,7 C 23,3 C 18,3 C 63 % 1019,7 hPa 0,0 l/m 0 min 0 min 287 W/m 6,4 km/h (2 Bft) 100,00 %
05.08.2022 16:44 22,7 C 23,9 C 18,3 C 64 % 1019,7 hPa 0,0 l/m 2 min 0 min 317 W/m 6,4 km/h (2 Bft) 100,00 %
05.08.2022 16:46 22,7 C 25,0 C 18,3 C 63 % 1019,7 hPa 0,0 l/m 0 min 0 min 271 W/m 12,9 km/h (3 Bft) 97,87 %
05.08.2022 16:48 22,8 C 26,7 C 18,9 C 63 % 1019,7 hPa 0,0 l/m 2 min 0 min 655 W/m 12,9 km/h (3 Bft) 100,00 %
05.08.2022 16:50 22,9 C 26,7 C 18,9 C 63 % 1019,7 hPa 0,0 l/m 2 min 0 min 718 W/m 9,7 km/h (2 Bft) 100,00 %
05.08.2022 16:52 23,1 C 25,6 C 19,4 C 63 % 1019,8 hPa 0,0 l/m 0 min 0 min 258 W/m 12,9 km/h (3 Bft) 97,87 %
05.08.2022 16:54 23,2 C 25,0 C 19,4 C 60 % 1019,8 hPa 0,0 l/m 0 min 0 min 222 W/m 22,5 km/h (4 Bft) 100,00 %
05.08.2022 16:56 23,2 C 23,9 C 18,9 C 59 % 1019,8 hPa 0,0 l/m 0 min 0 min 193 W/m 19,3 km/h (3 Bft) 100,00 %
05.08.2022 16:58 23,2 C 23,9 C 18,9 C 59 % 1019,8 hPa 0,0 l/m 0 min 0 min 187 W/m 19,3 km/h (3 Bft) 100,00 %
05.08.2022 17:00 23,2 C 23,3 C 18,9 C 58 % 1019,8 hPa 0,0 l/m 0 min 0 min 183 W/m 16,1 km/h (3 Bft) 97,83 %
05.08.2022 17:02 23,1 C 25,0 C 18,9 C 58 % 1019,8 hPa 0,0 l/m 2 min 0 min 430 W/m 25,7 km/h (4 Bft) 100,00 %
05.08.2022 17:04 23,2 C 26,7 C 18,9 C 57 % 1019,9 hPa 0,0 l/m 2 min 0 min 667 W/m 19,3 km/h (3 Bft) 100,00 %
05.08.2022 17:06 23,3 C 26,7 C 19,4 C 57 % 1019,9 hPa 0,0 l/m 2 min 0 min 643 W/m 25,7 km/h (4 Bft) 100,00 %
05.08.2022 17:08 23,3 C 25,0 C 18,9 C 56 % 1019,8 hPa 0,0 l/m 0 min 0 min 133 W/m 19,3 km/h (3 Bft) 97,87 %
05.08.2022 17:10 23,2 C 23,9 C 18,9 C 56 % 1020,0 hPa 0,0 l/m 0 min 0 min 110 W/m 25,7 km/h (4 Bft) 97,87 %
05.08.2022 17:12 23,2 C 23,3 C 18,3 C 57 % 1020,0 hPa 0,0 l/m 0 min 0 min 156 W/m 16,1 km/h (3 Bft) 97,83 %
05.08.2022 17:14 23,1 C 23,3 C 18,3 C 56 % 1019,9 hPa 0,0 l/m 0 min 0 min 156 W/m 12,9 km/h (3 Bft) 97,87 %
05.08.2022 17:16 23,0 C 22,8 C 18,3 C 57 % 1020,0 hPa 0,0 l/m 0 min 0 min 151 W/m 16,1 km/h (3 Bft) 97,87 %
05.08.2022 17:18 22,8 C 22,2 C 18,3 C 57 % 1020,0 hPa 0,0 l/m 0 min 0 min 142 W/m 19,3 km/h (3 Bft) 97,87 %
05.08.2022 17:20 22,8 C 22,2 C 17,8 C 56 % 1020,0 hPa 0,0 l/m 0 min 0 min 139 W/m 19,3 km/h (3 Bft) 95,74 %
05.08.2022 17:22 22,7 C 22,2 C 17,8 C 56 % 1020,1 hPa 0,0 l/m 0 min 0 min 157 W/m 16,1 km/h (3 Bft) 95,74 %
05.08.2022 17:24 22,6 C 22,2 C 18,3 C 57 % 1020,0 hPa 0,0 l/m 0 min 0 min 194 W/m 22,5 km/h (4 Bft) 95,65 %
05.08.2022 17:26 22,6 C 22,8 C 18,3 C 57 % 1020,1 hPa 0,0 l/m 0 min 0 min 231 W/m 6,4 km/h (2 Bft) 95,74 %
05.08.2022 17:28 22,6 C 22,8 C 18,3 C 57 % 1020,1 hPa 0,0 l/m 0 min 0 min 219 W/m 12,9 km/h (3 Bft) 95,74 %
05.08.2022 17:30 22,6 C 22,8 C 18,3 C 56 % 1020,1 hPa 0,0 l/m 0 min 0 min 183 W/m 22,5 km/h (4 Bft) 95,74 %
05.08.2022 17:32 22,6 C 22,8 C 18,3 C 57 % 1020,1 hPa 0,0 l/m 0 min 0 min 163 W/m 9,7 km/h (2 Bft) 94,29 %
05.08.2022 17:34 22,6 C 22,8 C 18,3 C 57 % 1020,1 hPa 0,0 l/m 0 min 0 min 170 W/m 12,9 km/h (3 Bft) 95,74 %
05.08.2022 17:36 22,6 C 22,8 C 18,3 C 56 % 1020,1 hPa 0,0 l/m 0 min 0 min 192 W/m 16,1 km/h (3 Bft) 94,83 %
05.08.2022 17:38 22,6 C 22,8 C 18,3 C 57 % 1020,1 hPa 0,0 l/m 0 min 0 min 222 W/m 12,9 km/h (3 Bft) 95,74 %
05.08.2022 17:40 22,6 C 24,4 C 18,3 C 57 % 1020,1 hPa 0,0 l/m 0 min 0 min 229 W/m 12,9 km/h (3 Bft) 91,43 %
05.08.2022 17:42 22,7 C 24,4 C 18,9 C 57 % 1020,1 hPa 0,0 l/m 0 min 0 min 228 W/m 16,1 km/h (3 Bft) 93,62 %
05.08.2022 17:44 22,7 C 23,9 C 18,9 C 55 % 1020,1 hPa 0,0 l/m 0 min 0 min 200 W/m 22,5 km/h (4 Bft) 93,62 %
05.08.2022 17:46 22,7 C 23,3 C 18,3 C 56 % 1020,2 hPa 0,0 l/m 0 min 0 min 204 W/m 19,3 km/h (3 Bft) 91,49 %
05.08.2022 17:48 22,7 C 22,8 C 18,3 C 55 % 1020,2 hPa 0,0 l/m 0 min 0 min 190 W/m 22,5 km/h (4 Bft) 93,62 %
05.08.2022 17:50 22,7 C 22,8 C 18,3 C 56 % 1020,1 hPa 0,0 l/m 0 min 0 min 193 W/m 12,9 km/h (3 Bft) 91,30 %
05.08.2022 17:52 22,6 C 22,8 C 18,3 C 56 % 1020,1 hPa 0,0 l/m 0 min 0 min 178 W/m 16,1 km/h (3 Bft) 95,74 %
05.08.2022 17:54 22,6 C 22,2 C 18,3 C 56 % 1020,1 hPa 0,0 l/m 0 min 0 min 159 W/m 16,1 km/h (3 Bft) 93,62 %
05.08.2022 17:56 22,6 C 22,8 C 18,3 C 55 % 1020,1 hPa 0,0 l/m 0 min 0 min 163 W/m 6,4 km/h (2 Bft) 91,49 %
05.08.2022 17:58 22,4 C 22,8 C 18,3 C 56 % 1020,1 hPa 0,0 l/m 0 min 0 min 174 W/m 19,3 km/h (3 Bft) 93,62 %
05.08.2022 18:00 22,4 C 22,8 C 18,3 C 55 % 1020,1 hPa 0,0 l/m 0 min 0 min 188 W/m 12,9 km/h (3 Bft) 93,62 %
05.08.2022 18:02 22,4 C 23,3 C 18,3 C 56 % 1020,1 hPa 0,0 l/m 2 min 0 min 261 W/m 9,7 km/h (2 Bft) 93,48 %
05.08.2022 18:04 22,5 C 24,4 C 18,3 C 56 % 1020,2 hPa 0,0 l/m 2 min 0 min 299 W/m 9,7 km/h (2 Bft) 93,62 %
05.08.2022 18:10 22,8 C 25,0 C 18,9 C 54 % 1020,3 hPa 0,0 l/m 5 min 0 min 335 W/m 22,5 km/h (4 Bft) 97,99 %
05.08.2022 18:12 22,8 C 25,0 C 18,9 C 54 % 1020,3 hPa 0,0 l/m 2 min 0 min 239 W/m 22,5 km/h (4 Bft) 97,83 %
05.08.2022 18:14 22,8 C 26,1 C 18,9 C 53 % 1020,3 hPa 0,0 l/m 2 min 0 min 410 W/m 16,1 km/h (3 Bft) 100,00 %
05.08.2022 18:16 22,9 C 27,2 C 19,4 C 54 % 1020,3 hPa 0,0 l/m 2 min 0 min 459 W/m 16,1 km/h (3 Bft) 97,87 %
05.08.2022 18:18 22,9 C 27,2 C 19,4 C 53 % 1020,4 hPa 0,0 l/m 2 min 0 min 484 W/m 19,3 km/h (3 Bft) 100,00 %
05.08.2022 18:20 23,0 C 27,8 C 19,4 C 52 % 1020,3 hPa 0,0 l/m 2 min 0 min 489 W/m 19,3 km/h (3 Bft) 97,87 %
05.08.2022 18:22 23,1 C 27,2 C 19,4 C 52 % 1020,4 hPa 0,0 l/m 2 min 0 min 502 W/m 25,7 km/h (4 Bft) 100,00 %
05.08.2022 18:24 23,2 C 28,3 C 20,0 C 52 % 1020,4 hPa 0,0 l/m 2 min 0 min 507 W/m 22,5 km/h (4 Bft) 97,83 %
05.08.2022 18:26 23,4 C 28,3 C 20,0 C 52 % 1020,3 hPa 0,0 l/m 2 min 0 min 488 W/m 19,3 km/h (3 Bft) 97,87 %
05.08.2022 18:28 23,4 C 28,3 C 20,0 C 51 % 1020,3 hPa 0,0 l/m 2 min 0 min 485 W/m 19,3 km/h (3 Bft) 100,00 %
05.08.2022 18:30 23,6 C 28,9 C 20,0 C 52 % 1020,3 hPa 0,0 l/m 2 min 0 min 466 W/m 19,3 km/h (3 Bft) 100,00 %
05.08.2022 18:32 23,6 C 28,3 C 20,0 C 51 % 1020,3 hPa 0,0 l/m 2 min 0 min 452 W/m 16,1 km/h (3 Bft) 97,92 %
05.08.2022 18:34 23,6 C 28,9 C 20,0 C 51 % 1020,4 hPa 0,0 l/m 2 min 0 min 432 W/m 12,9 km/h (3 Bft) 97,87 %
05.08.2022 18:36 23,7 C 28,9 C 20,0 C 51 % 1020,4 hPa 0,0 l/m 2 min 0 min 419 W/m 19,3 km/h (3 Bft) 100,00 %
05.08.2022 18:38 23,8 C 28,9 C 20,6 C 50 % 1020,4 hPa 0,0 l/m 2 min 0 min 397 W/m 12,9 km/h (3 Bft) 97,87 %
05.08.2022 18:40 23,9 C 28,9 C 20,0 C 51 % 1020,4 hPa 0,0 l/m 2 min 0 min 375 W/m 6,4 km/h (2 Bft) 100,00 %
05.08.2022 18:42 23,9 C 28,9 C 20,0 C 50 % 1020,5 hPa 0,0 l/m 2 min 0 min 367 W/m 12,9 km/h (3 Bft) 100,00 %
05.08.2022 18:44 23,9 C 28,3 C 19,4 C 50 % 1020,5 hPa 0,0 l/m 2 min 0 min 364 W/m 12,9 km/h (3 Bft) 100,00 %
05.08.2022 18:46 23,9 C 28,3 C 19,4 C 49 % 1020,6 hPa 0,0 l/m 2 min 0 min 350 W/m 22,5 km/h (4 Bft) 100,00 %
05.08.2022 18:48 23,9 C 28,9 C 19,4 C 50 % 1020,7 hPa 0,0 l/m 2 min 0 min 343 W/m 9,7 km/h (2 Bft) 100,00 %
05.08.2022 18:50 23,8 C 28,9 C 18,9 C 50 % 1020,6 hPa 0,0 l/m 2 min 0 min 340 W/m 12,9 km/h (3 Bft) 100,00 %
05.08.2022 18:52 23,8 C 28,9 C 18,9 C 50 % 1020,6 hPa 0,0 l/m 2 min 0 min 340 W/m 12,9 km/h (3 Bft) 97,87 %
05.08.2022 18:54 23,7 C 28,9 C 18,9 C 51 % 1020,7 hPa 0,0 l/m 2 min 0 min 351 W/m 12,9 km/h (3 Bft) 100,00 %
05.08.2022 18:56 23,7 C 28,9 C 18,9 C 51 % 1020,7 hPa 0,0 l/m 2 min 0 min 367 W/m 12,9 km/h (3 Bft) 100,00 %
05.08.2022 18:58 23,7 C 28,9 C 18,9 C 51 % 1020,7 hPa 0,0 l/m 2 min 0 min 373 W/m 19,3 km/h (3 Bft) 100,00 %
05.08.2022 19:00 23,6 C 28,9 C 18,9 C 51 % 1020,7 hPa 0,0 l/m 2 min 0 min 368 W/m 12,9 km/h (3 Bft) 100,00 %
05.08.2022 19:02 23,6 C 28,9 C 18,9 C 52 % 1020,7 hPa 0,0 l/m 2 min 0 min 349 W/m 9,7 km/h (2 Bft) 100,00 %
05.08.2022 19:04 23,6 C 28,3 C 18,3 C 51 % 1020,8 hPa 0,0 l/m 2 min 0 min 318 W/m 22,5 km/h (4 Bft) 100,00 %
05.08.2022 19:06 23,4 C 26,7 C 18,3 C 51 % 1020,8 hPa 0,0 l/m 2 min 0 min 299 W/m 29,0 km/h (5 Bft) 100,00 %
05.08.2022 19:08 23,2 C 24,4 C 18,3 C 51 % 1020,9 hPa 0,0 l/m 2 min 0 min 292 W/m 16,1 km/h (3 Bft) 97,87 %
05.08.2022 19:10 23,1 C 23,3 C 18,3 C 52 % 1020,9 hPa 0,0 l/m 2 min 0 min 285 W/m 12,9 km/h (3 Bft) 100,00 %
05.08.2022 19:12 23,0 C 22,8 C 17,8 C 52 % 1020,9 hPa 0,0 l/m 2 min 0 min 277 W/m 19,3 km/h (3 Bft) 100,00 %
05.08.2022 19:14 22,8 C 22,8 C 17,8 C 52 % 1020,9 hPa 0,0 l/m 2 min 0 min 271 W/m 16,1 km/h (3 Bft) 100,00 %
05.08.2022 19:16 22,8 C 22,2 C 17,8 C 53 % 1020,9 hPa 0,0 l/m 2 min 0 min 265 W/m 16,1 km/h (3 Bft) 100,00 %
05.08.2022 19:18 22,7 C 22,2 C 17,8 C 53 % 1020,9 hPa 0,0 l/m 2 min 0 min 264 W/m 16,1 km/h (3 Bft) 100,00 %
05.08.2022 19:20 22,7 C 21,7 C 17,8 C 52 % 1020,9 hPa 0,0 l/m 2 min 0 min 200 W/m 16,1 km/h (3 Bft) 100,00 %
05.08.2022 19:22 22,6 C 21,7 C 17,8 C 53 % 1020,9 hPa 0,0 l/m 2 min 0 min 219 W/m 19,3 km/h (3 Bft) 100,00 %
05.08.2022 19:24 22,5 C 21,7 C 17,8 C 53 % 1021,0 hPa 0,0 l/m 0 min 0 min 125 W/m 22,5 km/h (4 Bft) 100,00 %
05.08.2022 19:26 22,4 C 21,7 C 17,8 C 53 % 1021,0 hPa 0,0 l/m 2 min 0 min 133 W/m 12,9 km/h (3 Bft) 100,00 %
05.08.2022 19:28 22,3 C 21,7 C 17,8 C 53 % 1021,0 hPa 0,0 l/m 0 min 0 min 91 W/m 16,1 km/h (3 Bft) 100,00 %
05.08.2022 19:30 22,3 C 21,7 C 17,8 C 54 % 1021,0 hPa 0,0 l/m 0 min 0 min 80 W/m 22,5 km/h (4 Bft) 100,00 %
05.08.2022 19:32 22,2 C 21,7 C 17,8 C 54 % 1021,1 hPa 0,0 l/m 0 min 0 min 74 W/m 22,5 km/h (4 Bft) 100,00 %
05.08.2022 19:34 22,1 C 21,7 C 17,8 C 54 % 1021,1 hPa 0,0 l/m 0 min 0 min 68 W/m 22,5 km/h (4 Bft) 100,00 %
05.08.2022 19:36 22,0 C 21,1 C 17,2 C 54 % 1021,1 hPa 0,0 l/m 0 min 0 min 62 W/m 12,9 km/h (3 Bft) 100,00 %
05.08.2022 19:38 21,9 C 21,1 C 17,2 C 55 % 1021,1 hPa 0,0 l/m 0 min 0 min 58 W/m 12,9 km/h (3 Bft) 100,00 %
05.08.2022 19:40 21,8 C 21,1 C 17,2 C 55 % 1021,2 hPa 0,0 l/m 0 min 0 min 55 W/m 16,1 km/h (3 Bft) 97,87 %
05.08.2022 19:42 21,8 C 21,1 C 17,2 C 55 % 1021,2 hPa 0,0 l/m 0 min 0 min 54 W/m 19,3 km/h (3 Bft) 97,87 %
05.08.2022 19:44 21,7 C 21,1 C 17,2 C 55 % 1021,3 hPa 0,0 l/m 0 min 0 min 54 W/m 22,5 km/h (4 Bft) 97,87 %
05.08.2022 19:46 21,7 C 21,1 C 17,2 C 55 % 1021,2 hPa 0,0 l/m 0 min 0 min 54 W/m 16,1 km/h (3 Bft) 95,65 %
05.08.2022 19:48 21,6 C 21,1 C 17,2 C 56 % 1021,2 hPa 0,0 l/m 0 min 0 min 54 W/m 9,7 km/h (2 Bft) 95,74 %
05.08.2022 19:50 21,6 C 21,1 C 17,2 C 56 % 1021,3 hPa 0,0 l/m 0 min 0 min 52 W/m 6,4 km/h (2 Bft) 97,87 %
05.08.2022 19:52 21,6 C 21,1 C 17,2 C 56 % 1021,3 hPa 0,0 l/m 0 min 0 min 48 W/m 16,1 km/h (3 Bft) 93,62 %
05.08.2022 19:54 21,6 C 21,1 C 17,2 C 56 % 1021,3 hPa 0,0 l/m 0 min 0 min 45 W/m 16,1 km/h (3 Bft) 93,62 %
05.08.2022 19:56 21,5 C 20,6 C 16,7 C 56 % 1021,3 hPa 0,0 l/m 0 min 0 min 42 W/m 16,1 km/h (3 Bft) 95,74 %
05.08.2022 19:58 21,4 C 20,6 C 16,7 C 56 % 1021,3 hPa 0,0 l/m 0 min 0 min 41 W/m 16,1 km/h (3 Bft) 95,65 %
05.08.2022 20:00 21,4 C 20,6 C 16,7 C 57 % 1021,4 hPa 0,0 l/m 0 min 0 min 37 W/m 19,3 km/h (3 Bft) 95,74 %
05.08.2022 20:02 21,3 C 20,6 C 16,7 C 57 % 1021,4 hPa 0,0 l/m 0 min 0 min 36 W/m 16,1 km/h (3 Bft) 95,74 %
05.08.2022 20:04 21,3 C 20,6 C 16,7 C 57 % 1021,5 hPa 0,0 l/m 0 min 0 min 37 W/m 19,3 km/h (3 Bft) 95,74 %
05.08.2022 20:06 21,2 C 20,6 C 16,7 C 58 % 1021,6 hPa 0,0 l/m 0 min 0 min 35 W/m 32,2 km/h (5 Bft) 93,62 %
05.08.2022 20:08 21,2 C 20,6 C 16,7 C 58 % 1021,5 hPa 0,0 l/m 0 min 0 min 34 W/m 16,1 km/h (3 Bft) 93,62 %
05.08.2022 20:10 21,1 C 20,6 C 16,7 C 58 % 1021,6 hPa 0,0 l/m 0 min 0 min 33 W/m 9,7 km/h (2 Bft) 93,48 %
05.08.2022 20:12 21,1 C 20,0 C 16,7 C 59 % 1021,6 hPa 0,0 l/m 0 min 0 min 32 W/m 12,9 km/h (3 Bft) 95,74 %
05.08.2022 20:14 21,1 C 20,0 C 16,7 C 59 % 1021,6 hPa 0,0 l/m 0 min 0 min 31 W/m 6,4 km/h (2 Bft) 95,74 %
05.08.2022 20:16 21,0 C 20,0 C 16,7 C 60 % 1021,7 hPa 0,0 l/m 0 min 0 min 30 W/m 12,9 km/h (3 Bft) 95,74 %
05.08.2022 20:18 21,0 C 20,0 C 16,1 C 60 % 1021,7 hPa 0,0 l/m 0 min 0 min 28 W/m 16,1 km/h (3 Bft) 93,75 %
05.08.2022 20:20 20,9 C 20,0 C 16,1 C 60 % 1021,8 hPa 0,0 l/m 0 min 0 min 28 W/m 12,9 km/h (3 Bft) 95,74 %
05.08.2022 20:22 20,9 C 20,0 C 16,1 C 59 % 1021,8 hPa 0,0 l/m 0 min 0 min 26 W/m 9,7 km/h (2 Bft) 95,65 %
05.08.2022 20:24 20,8 C 20,0 C 16,1 C 60 % 1021,8 hPa 0,0 l/m 0 min 0 min 26 W/m 19,3 km/h (3 Bft) 93,62 %
05.08.2022 20:26 20,8 C 20,0 C 16,1 C 60 % 1021,8 hPa 0,0 l/m 0 min 0 min 26 W/m 16,1 km/h (3 Bft) 95,74 %
05.08.2022 20:28 20,8 C 20,0 C 16,1 C 60 % 1021,9 hPa 0,0 l/m 0 min 0 min 25 W/m 12,9 km/h (3 Bft) 91,49 %
05.08.2022 20:30 20,7 C 20,0 C 16,1 C 60 % 1022,0 hPa 0,0 l/m 0 min 0 min 25 W/m 19,3 km/h (3 Bft) 95,74 %
05.08.2022 20:32 20,6 C 19,4 C 16,1 C 60 % 1022,0 hPa 0,0 l/m 0 min 0 min 23 W/m 19,3 km/h (3 Bft) 95,74 %
05.08.2022 20:34 20,6 C 19,4 C 16,1 C 60 % 1022,0 hPa 0,0 l/m 0 min 0 min 21 W/m 9,7 km/h (2 Bft) 95,65 %
05.08.2022 20:36 20,5 C 19,4 C 16,1 C 60 % 1022,1 hPa 0,0 l/m 0 min 0 min 21 W/m 16,1 km/h (3 Bft) 95,74 %
05.08.2022 20:38 20,4 C 19,4 C 15,6 C 60 % 1022,1 hPa 0,0 l/m 0 min 0 min 20 W/m 16,1 km/h (3 Bft) 95,74 %
05.08.2022 20:40 20,4 C 19,4 C 15,6 C 60 % 1022,1 hPa 0,0 l/m 0 min 0 min 19 W/m 16,1 km/h (3 Bft) 97,87 %
05.08.2022 20:42 20,3 C 19,4 C 15,6 C 60 % 1022,1 hPa 0,0 l/m 0 min 0 min 19 W/m 9,7 km/h (2 Bft) 97,87 %
05.08.2022 20:44 20,3 C 19,4 C 15,6 C 60 % 1022,2 hPa 0,0 l/m 0 min 0 min 18 W/m 12,9 km/h (3 Bft) 95,74 %
05.08.2022 20:46 20,2 C 19,4 C 15,6 C 61 % 1022,2 hPa 0,0 l/m 0 min 0 min 19 W/m 16,1 km/h (3 Bft) 95,65 %
05.08.2022 20:48 20,2 C 19,4 C 15,6 C 61 % 1022,2 hPa 0,0 l/m 0 min 0 min 19 W/m 25,7 km/h (4 Bft) 95,74 %
05.08.2022 20:50 20,1 C 19,4 C 15,6 C 61 % 1022,3 hPa 0,0 l/m 0 min 0 min 19 W/m 12,9 km/h (3 Bft) 97,87 %
05.08.2022 20:52 20,1 C 18,9 C 15,6 C 61 % 1022,2 hPa 0,0 l/m 0 min 0 min 18 W/m 22,5 km/h (4 Bft) 97,87 %
05.08.2022 20:54 20,1 C 18,9 C 15,6 C 61 % 1022,2 hPa 0,0 l/m 0 min 0 min 16 W/m 19,3 km/h (3 Bft) 95,74 %
05.08.2022 20:56 20,0 C 18,9 C 15,6 C 61 % 1022,2 hPa 0,0 l/m 0 min 0 min 14 W/m 9,7 km/h (2 Bft) 97,87 %
05.08.2022 20:58 19,9 C 18,9 C 15,6 C 61 % 1022,3 hPa 0,0 l/m 0 min 0 min 13 W/m 19,3 km/h (3 Bft) 97,87 %
05.08.2022 21:00 19,9 C 18,9 C 15,6 C 62 % 1022,3 hPa 0,0 l/m 0 min 0 min 12 W/m 12,9 km/h (3 Bft) 97,83 %
05.08.2022 21:02 19,9 C 18,9 C 15,6 C 62 % 1022,4 hPa 0,0 l/m 0 min 0 min 11 W/m 16,1 km/h (3 Bft) 100,00 %
05.08.2022 21:04 19,8 C 18,9 C 15,6 C 62 % 1022,3 hPa 0,0 l/m 0 min 0 min 11 W/m 16,1 km/h (3 Bft) 100,00 %
05.08.2022 21:06 19,8 C 18,9 C 15,0 C 62 % 1022,4 hPa 0,0 l/m 0 min 0 min 11 W/m 19,3 km/h (3 Bft) 100,00 %
05.08.2022 21:08 19,7 C 18,9 C 15,0 C 62 % 1022,4 hPa 0,0 l/m 0 min 0 min 11 W/m 12,9 km/h (3 Bft) 100,00 %
05.08.2022 21:10 19,7 C 18,9 C 15,0 C 62 % 1022,5 hPa 0,0 l/m 0 min 0 min 10 W/m 9,7 km/h (2 Bft) 100,00 %
05.08.2022 21:12 19,7 C 18,9 C 15,0 C 62 % 1022,5 hPa 0,0 l/m 0 min 0 min 9 W/m 12,9 km/h (3 Bft) 100,00 %
05.08.2022 21:14 19,7 C 18,9 C 15,0 C 62 % 1022,5 hPa 0,0 l/m 0 min 0 min 7 W/m 12,9 km/h (3 Bft) 100,00 %
05.08.2022 21:16 19,6 C 18,9 C 15,0 C 62 % 1022,6 hPa 0,0 l/m 0 min 0 min 6 W/m 12,9 km/h (3 Bft) 100,00 %
05.08.2022 21:18 19,6 C 18,9 C 15,0 C 62 % 1022,6 hPa 0,0 l/m 0 min 0 min 3 W/m 12,9 km/h (3 Bft) 100,00 %
05.08.2022 21:20 19,6 C 18,9 C 15,0 C 62 % 1022,7 hPa 0,0 l/m 0 min 0 min 0 W/m 12,9 km/h (3 Bft) 100,00 %
05.08.2022 21:22 19,5 C 18,3 C 15,0 C 63 % 1022,7 hPa 0,0 l/m 0 min 0 min 0 W/m 12,9 km/h (3 Bft) 100,00 %
05.08.2022 21:24 19,4 C 18,3 C 15,0 C 63 % 1022,7 hPa 0,0 l/m 0 min 0 min 0 W/m 9,7 km/h (2 Bft) 100,00 %
05.08.2022 21:26 19,4 C 18,3 C 15,0 C 63 % 1022,8 hPa 0,0 l/m 0 min 0 min 0 W/m 6,4 km/h (2 Bft) 100,00 %
05.08.2022 21:28 19,3 C 18,3 C 15,0 C 63 % 1022,8 hPa 0,0 l/m 0 min 0 min 0 W/m 9,7 km/h (2 Bft) 97,87 %
05.08.2022 21:30 19,3 C 18,3 C 14,4 C 63 % 1022,9 hPa 0,0 l/m 0 min 0 min 0 W/m 9,7 km/h (2 Bft) 100,00 %
05.08.2022 21:32 19,3 C 18,3 C 14,4 C 63 % 1022,9 hPa 0,0 l/m 0 min 0 min 0 W/m 16,1 km/h (3 Bft) 97,87 %
05.08.2022 21:34 19,2 C 18,3 C 14,4 C 64 % 1022,9 hPa 0,0 l/m 0 min 0 min 0 W/m 9,7 km/h (2 Bft) 100,00 %
05.08.2022 21:36 19,2 C 17,8 C 14,4 C 64 % 1022,9 hPa 0,0 l/m 0 min 0 min 0 W/m 9,7 km/h (2 Bft) 97,87 %
05.08.2022 21:38 19,1 C 17,8 C 14,4 C 64 % 1022,9 hPa 0,0 l/m 0 min 0 min 0 W/m 3,2 km/h (1 Bft) 97,87 %
05.08.2022 21:40 19,1 C 17,8 C 14,4 C 65 % 1023,0 hPa 0,0 l/m 0 min 0 min 0 W/m 12,9 km/h (3 Bft) 97,87 %
05.08.2022 21:42 19,1 C 17,8 C 14,4 C 65 % 1023,0 hPa 0,0 l/m 0 min 0 min 0 W/m 9,7 km/h (2 Bft) 97,87 %
05.08.2022 21:44 19,0 C 17,8 C 14,4 C 65 % 1023,1 hPa 0,0 l/m 0 min 0 min 0 W/m 12,9 km/h (3 Bft) 97,87 %
05.08.2022 21:46 18,9 C 17,8 C 13,9 C 66 % 1023,1 hPa 0,0 l/m 0 min 0 min 0 W/m 9,7 km/h (2 Bft) 97,83 %
05.08.2022 21:48 18,8 C 17,8 C 13,9 C 66 % 1023,2 hPa 0,0 l/m 0 min 0 min 0 W/m 3,2 km/h (1 Bft) 97,87 %
05.08.2022 21:50 18,7 C 17,8 C 13,9 C 66 % 1023,2 hPa 0,0 l/m 0 min 0 min 0 W/m 12,9 km/h (3 Bft) 93,62 %
05.08.2022 21:52 18,7 C 17,2 C 13,9 C 67 % 1023,2 hPa 0,0 l/m 0 min 0 min 0 W/m 16,1 km/h (3 Bft) 97,87 %
05.08.2022 21:54 18,6 C 17,2 C 13,9 C 67 % 1023,2 hPa 0,0 l/m 0 min 0 min 0 W/m 16,1 km/h (3 Bft) 97,87 %
05.08.2022 21:56 18,6 C 17,2 C 13,9 C 68 % 1023,3 hPa 0,0 l/m 0 min 0 min 0 W/m 6,4 km/h (2 Bft) 97,87 %
05.08.2022 21:58 18,5 C 17,2 C 13,9 C 68 % 1023,3 hPa 0,0 l/m 0 min 0 min 0 W/m 9,7 km/h (2 Bft) 97,83 %
05.08.2022 22:00 18,4 C 17,2 C 13,9 C 68 % 1023,3 hPa 0,0 l/m 0 min 0 min 0 W/m 6,4 km/h (2 Bft) 97,87 %
05.08.2022 22:02 18,4 C 17,2 C 13,9 C 68 % 1023,4 hPa 0,0 l/m 0 min 0 min 0 W/m 12,9 km/h (3 Bft) 95,74 %
05.08.2022 22:04 18,3 C 17,2 C 13,9 C 69 % 1023,4 hPa 0,0 l/m 0 min 0 min 0 W/m 6,4 km/h (2 Bft) 97,14 %
05.08.2022 22:06 18,3 C 17,2 C 13,9 C 69 % 1023,4 hPa 0,0 l/m 0 min 0 min 0 W/m 6,4 km/h (2 Bft) 98,31 %
05.08.2022 22:08 18,3 C 17,2 C 13,9 C 69 % 1023,4 hPa 0,0 l/m 0 min 0 min 0 W/m 3,2 km/h (1 Bft) 100,00 %
05.08.2022 22:10 18,2 C 17,2 C 13,9 C 69 % 1023,4 hPa 0,0 l/m 0 min 0 min 0 W/m 12,9 km/h (3 Bft) 100,00 %
05.08.2022 22:14 18,2 C 16,7 C 13,3 C 70 % 1023,5 hPa 0,0 l/m 0 min 0 min 0 W/m 6,4 km/h (2 Bft) 100,00 %
05.08.2022 22:16 18,1 C 16,7 C 13,3 C 70 % 1023,6 hPa 0,0 l/m 0 min 0 min 0 W/m 6,4 km/h (2 Bft) 100,00 %
05.08.2022 22:18 18,1 C 16,7 C 13,3 C 70 % 1023,6 hPa 0,0 l/m 0 min 0 min 0 W/m 9,7 km/h (2 Bft) 100,00 %
05.08.2022 22:20 18,1 C 16,7 C 13,3 C 70 % 1023,6 hPa 0,0 l/m 0 min 0 min 0 W/m 12,9 km/h (3 Bft) 100,00 %
05.08.2022 22:22 18,0 C 16,7 C 13,3 C 69 % 1023,6 hPa 0,0 l/m 0 min 0 min 0 W/m 16,1 km/h (3 Bft) 100,00 %
05.08.2022 22:24 17,9 C 16,7 C 13,3 C 70 % 1023,7 hPa 0,0 l/m 0 min 0 min 0 W/m 6,4 km/h (2 Bft) 100,00 %
05.08.2022 22:26 17,8 C 16,7 C 13,3 C 70 % 1023,7 hPa 0,0 l/m 0 min 0 min 0 W/m 12,9 km/h (3 Bft) 100,00 %
05.08.2022 22:28 17,8 C 16,7 C 13,3 C 70 % 1023,7 hPa 0,0 l/m 0 min 0 min 0 W/m 12,9 km/h (3 Bft) 100,00 %
05.08.2022 22:30 17,7 C 16,7 C 13,3 C 70 % 1023,7 hPa 0,0 l/m 0 min 0 min 0 W/m 9,7 km/h (2 Bft) 100,00 %
05.08.2022 22:32 17,7 C 16,7 C 13,3 C 70 % 1023,7 hPa 0,0 l/m 0 min 0 min 0 W/m 9,7 km/h (2 Bft) 100,00 %
05.08.2022 22:34 17,7 C 16,7 C 13,3 C 70 % 1023,8 hPa 0,0 l/m 0 min 0 min 0 W/m 12,9 km/h (3 Bft) 100,00 %
05.08.2022 22:36 17,6 C 16,7 C 13,3 C 70 % 1023,9 hPa 0,0 l/m 0 min 0 min 0 W/m 12,9 km/h (3 Bft) 100,00 %
05.08.2022 22:38 17,6 C 16,7 C 13,3 C 70 % 1023,9 hPa 0,0 l/m 0 min 0 min 0 W/m 9,7 km/h (2 Bft) 100,00 %
05.08.2022 22:40 17,6 C 16,7 C 13,3 C 70 % 1023,9 hPa 0,0 l/m 0 min 0 min 0 W/m 9,7 km/h (2 Bft) 100,00 %
05.08.2022 22:42 17,5 C 16,7 C 13,3 C 70 % 1023,9 hPa 0,0 l/m 0 min 0 min 0 W/m 12,9 km/h (3 Bft) 100,00 %
05.08.2022 22:44 17,5 C 16,7 C 13,3 C 70 % 1023,9 hPa 0,0 l/m 0 min 0 min 0 W/m 16,1 km/h (3 Bft) 100,00 %
05.08.2022 22:46 17,5 C 16,7 C 12,8 C 70 % 1023,9 hPa 0,0 l/m 0 min 0 min 0 W/m 3,2 km/h (1 Bft) 100,00 %
05.08.2022 22:48 17,4 C 16,1 C 12,8 C 70 % 1024,0 hPa 0,0 l/m 0 min 0 min 0 W/m 6,4 km/h (2 Bft) 97,87 %
05.08.2022 22:50 17,4 C 16,1 C 12,8 C 71 % 1024,0 hPa 0,0 l/m 0 min 0 min 0 W/m 3,2 km/h (1 Bft) 95,74 %
05.08.2022 22:52 17,4 C 16,1 C 12,8 C 71 % 1024,0 hPa 0,0 l/m 0 min 0 min 0 W/m 3,2 km/h (1 Bft) 95,74 %
05.08.2022 22:54 17,3 C 16,1 C 12,8 C 71 % 1024,0 hPa 0,0 l/m 0 min 0 min 0 W/m 3,2 km/h (1 Bft) 97,83 %
05.08.2022 22:56 17,3 C 16,1 C 12,8 C 71 % 1024,0 hPa 0,0 l/m 0 min 0 min 0 W/m 6,4 km/h (2 Bft) 95,74 %
05.08.2022 22:58 17,3 C 16,1 C 12,2 C 71 % 1024,0 hPa 0,0 l/m 0 min 0 min 0 W/m 6,4 km/h (2 Bft) 97,87 %
05.08.2022 23:00 17,2 C 15,6 C 12,2 C 71 % 1024,1 hPa 0,0 l/m 0 min 0 min 0 W/m 6,4 km/h (2 Bft) 97,87 %
05.08.2022 23:02 17,2 C 15,6 C 12,2 C 72 % 1024,1 hPa 0,0 l/m 0 min 0 min 0 W/m 6,4 km/h (2 Bft) 95,74 %
05.08.2022 23:04 17,1 C 15,6 C 12,2 C 72 % 1024,1 hPa 0,0 l/m 0 min 0 min 0 W/m 3,2 km/h (1 Bft) 97,87 %
05.08.2022 23:06 17,1 C 15,6 C 12,2 C 72 % 1024,2 hPa 0,0 l/m 0 min 0 min 0 W/m 6,4 km/h (2 Bft) 93,10 %
05.08.2022 23:08 17,1 C 15,6 C 12,2 C 73 % 1024,2 hPa 0,0 l/m 0 min 0 min 0 W/m 6,4 km/h (2 Bft) 97,14 %
05.08.2022 23:10 16,9 C 15,6 C 12,2 C 73 % 1024,2 hPa 0,0 l/m 0 min 0 min 0 W/m 3,2 km/h (1 Bft) 93,62 %
05.08.2022 23:12 16,9 C 15,6 C 12,2 C 73 % 1024,2 hPa 0,0 l/m 0 min 0 min 0 W/m 6,4 km/h (2 Bft) 95,74 %
05.08.2022 23:14 16,8 C 15,6 C 12,2 C 73 % 1024,2 hPa 0,0 l/m 0 min 0 min 0 W/m 3,2 km/h (1 Bft) 93,62 %
05.08.2022 23:16 16,8 C 15,6 C 12,2 C 73 % 1024,2 hPa 0,0 l/m 0 min 0 min 0 W/m 0,0 km/h (0 Bft) 93,62 %
05.08.2022 23:18 16,7 C 15,6 C 12,2 C 73 % 1024,3 hPa 0,0 l/m 0 min 0 min 0 W/m 6,4 km/h (2 Bft) 93,48 %
05.08.2022 23:20 16,7 C 15,6 C 11,7 C 74 % 1024,2 hPa 0,0 l/m 0 min 0 min 0 W/m 3,2 km/h (1 Bft) 95,74 %
05.08.2022 23:22 16,6 C 15,0 C 11,7 C 74 % 1024,3 hPa 0,0 l/m 0 min 0 min 0 W/m 3,2 km/h (1 Bft) 93,62 %
05.08.2022 23:24 16,6 C 15,0 C 11,7 C 74 % 1024,3 hPa 0,0 l/m 0 min 0 min 0 W/m 3,2 km/h (1 Bft) 89,36 %
05.08.2022 23:26 16,5 C 15,0 C 11,7 C 75 % 1024,3 hPa 0,0 l/m 0 min 0 min 0 W/m 3,2 km/h (1 Bft) 93,62 %
05.08.2022 23:28 16,4 C 15,0 C 11,7 C 75 % 1024,3 hPa 0,0 l/m 0 min 0 min 0 W/m 6,4 km/h (2 Bft) 93,48 %
05.08.2022 23:30 16,4 C 15,0 C 11,7 C 75 % 1024,3 hPa 0,0 l/m 0 min 0 min 0 W/m 3,2 km/h (1 Bft) 93,62 %
05.08.2022 23:32 16,4 C 15,0 C 11,7 C 75 % 1024,3 hPa 0,0 l/m 0 min 0 min 0 W/m 3,2 km/h (1 Bft) 93,62 %
05.08.2022 23:34 16,3 C 15,0 C 11,7 C 75 % 1024,3 hPa 0,0 l/m 0 min 0 min 0 W/m 0,0 km/h (0 Bft) 93,62 %
05.08.2022 23:36 16,3 C 15,0 C 11,7 C 75 % 1024,4 hPa 0,0 l/m 0 min 0 min 0 W/m 3,2 km/h (1 Bft) 93,62 %
05.08.2022 23:38 16,2 C 15,0 C 11,7 C 75 % 1024,4 hPa 0,0 l/m 0 min 0 min 0 W/m 3,2 km/h (1 Bft) 93,62 %
05.08.2022 23:40 16,2 C 15,0 C 11,7 C 75 % 1024,4 hPa 0,0 l/m 0 min 0 min 0 W/m 3,2 km/h (1 Bft) 91,49 %
05.08.2022 23:42 16,2 C 14,4 C 11,7 C 76 % 1024,4 hPa 0,0 l/m 0 min 0 min 0 W/m 3,2 km/h (1 Bft) 95,65 %
05.08.2022 23:44 16,1 C 14,4 C 11,7 C 75 % 1024,4 hPa 0,0 l/m 0 min 0 min 0 W/m 3,2 km/h (1 Bft) 95,74 %
05.08.2022 23:46 16,1 C 14,4 C 11,7 C 76 % 1024,5 hPa 0,0 l/m 0 min 0 min 0 W/m 3,2 km/h (1 Bft) 97,87 %
05.08.2022 23:48 16,0 C 14,4 C 11,7 C 76 % 1024,4 hPa 0,0 l/m 0 min 0 min 0 W/m 0,0 km/h (0 Bft) 97,87 %
05.08.2022 23:50 15,9 C 14,4 C 11,1 C 76 % 1024,5 hPa 0,0 l/m 0 min 0 min 0 W/m 3,2 km/h (1 Bft) 97,87 %
05.08.2022 23:52 15,9 C 14,4 C 11,1 C 76 % 1024,5 hPa 0,0 l/m 0 min 0 min 0 W/m 0,0 km/h (0 Bft) 93,62 %
05.08.2022 23:54 15,8 C 14,4 C 11,1 C 76 % 1024,5 hPa 0,0 l/m 0 min 0 min 0 W/m 3,2 km/h (1 Bft) 97,83 %
05.08.2022 23:56 15,8 C 14,4 C 11,1 C 77 % 1024,6 hPa 0,0 l/m 0 min 0 min 0 W/m 3,2 km/h (1 Bft) 100,00 %
05.08.2022 23:58 15,7 C 14,4 C 11,1 C 77 % 1024,6 hPa 0,0 l/m 0 min 0 min 0 W/m 3,2 km/h (1 Bft) 100,00 %
_ Min-Zeit 23:58 23:42 23:50 18:46 05:06 - - - - 01:46 08:12
Minimum _ 15,7 C 14,4 C 11,1 C 49 % 1013,1 hPa - - - - 0,0 km/h (0 Bft) 89,36 %
_ Max-Zeit 18:40 18:30 18:38 06:34 23:56 04:18 18:10 04:05 13:46 20:06 00:00
Maximum _ 23,9 C 28,9 C 20,6 C 98 % 1024,6 hPa 0,4 l/m 5 min 5 min 1130 W/m 32,2 km/h
NW (5 Bft)
100,00 %
Durchschnitt _ 19,6 C 19,5 C 15,3 C 80 % 1017,9 hPa #3,6 l/m #3:26 h #1:34 h 204 W/m 10,6 km/h (2 Bft) 97,59 %
© 2022 W. Hausmann